GEFSMA_prec_meanprecacc_042.txt.gz
Total_Precipitation_Accumulation
0.10 0.11 0.12 0.11 0.08 0.11 0.23 0.32 0.30 0.34 0.42 0.40 0.32 0.27 0.28 0.31 0.32 0.45 0.31 0.30 0.24 0.22 0.43 0.51 0.44 0.43 0.40 0.34 0.29 0.26 0.24 0.25 0.23 0.18 0.18 0.26 0.35 0.39 0.36 0.30 0.31 0.32 0.26
0.22 0.25 0.22 0.26 0.23 0.26 0.34 0.43 0.47 0.61 0.60 0.59 0.46 0.42 0.37 0.36 0.40 0.46 0.35 0.34 0.24 0.18 0.26 0.34 0.40 0.40 0.39 0.37 0.26 0.21 0.18 0.19 0.18 0.13 0.12 0.16 0.25 0.34 0.31 0.29 0.28 0.28 0.24
0.41 0.47 0.41 0.39 0.49 0.57 0.60 0.63 0.70 0.80 0.76 0.73 0.58 0.56 0.51 0.45 0.41 0.40 0.35 0.34 0.29 0.22 0.19 0.23 0.32 0.33 0.34 0.36 0.30 0.25 0.18 0.14 0.12 0.10 0.09 0.08 0.11 0.17 0.17 0.19 0.21 0.21 0.19
0.61 0.63 0.49 0.46 0.76 0.83 0.83 0.92 0.94 0.99 1.09 1.08 0.86 0.73 0.66 0.57 0.42 0.37 0.34 0.34 0.33 0.22 0.18 0.22 0.25 0.29 0.36 0.40 0.38 0.38 0.29 0.18 0.12 0.09 0.07 0.05 0.07 0.12 0.10 0.09 0.12 0.12 0.10
0.72 0.81 0.62 0.63 0.94 1.05 1.05 1.05 1.20 1.35 1.32 1.33 1.13 0.91 0.73 0.58 0.42 0.38 0.34 0.29 0.27 0.24 0.22 0.20 0.14 0.21 0.39 0.51 0.48 0.45 0.40 0.30 0.20 0.15 0.13 0.11 0.10 0.13 0.11 0.07 0.08 0.06 0.05
0.78 0.99 0.78 0.83 1.11 1.14 1.10 1.23 1.34 1.46 1.36 1.43 1.30 0.90 0.68 0.49 0.43 0.33 0.28 0.23 0.16 0.14 0.16 0.22 0.27 0.26 0.36 0.44 0.45 0.46 0.50 0.45 0.32 0.22 0.22 0.20 0.16 0.15 0.11 0.08 0.07 0.06 0.04
0.84 1.11 0.96 1.03 1.13 1.08 1.04 1.21 1.32 1.26 1.16 1.53 1.46 0.89 0.51 0.37 0.27 0.17 0.18 0.16 0.12 0.09 0.12 0.20 0.28 0.30 0.29 0.30 0.35 0.36 0.44 0.50 0.45 0.34 0.29 0.25 0.22 0.17 0.15 0.13 0.10 0.09 0.07
0.95 1.07 1.11 1.06 1.09 1.05 0.92 0.95 1.12 1.05 0.84 1.23 1.37 1.22 0.71 0.37 0.23 0.13 0.13 0.13 0.15 0.16 0.17 0.18 0.21 0.30 0.30 0.31 0.43 0.29 0.31 0.49 0.56 0.51 0.40 0.28 0.22 0.18 0.17 0.18 0.14 0.13 0.10
1.12 1.17 1.09 1.05 1.02 1.02 0.86 0.80 0.95 1.00 0.83 0.92 1.24 1.47 1.04 0.53 0.37 0.19 0.21 0.25 0.31 0.36 0.35 0.31 0.29 0.30 0.35 0.43 0.54 0.60 0.36 0.37 0.51 0.68 0.62 0.42 0.24 0.16 0.16 0.20 0.24 0.19 0.15
1.30 1.20 1.04 0.91 0.81 0.81 0.74 0.72 0.83 0.91 0.92 0.76 0.86 1.01 1.01 0.90 0.74 0.40 0.26 0.32 0.47 0.50 0.47 0.42 0.36 0.35 0.41 0.53 0.64 0.76 0.53 0.38 0.39 0.59 0.69 0.63 0.45 0.28 0.21 0.28 0.46 0.45 0.31
1.22 1.09 0.96 0.86 0.79 0.73 0.67 0.65 0.68 0.71 0.74 0.68 0.69 0.72 0.82 0.86 0.81 0.67 0.45 0.46 0.47 0.38 0.36 0.33 0.35 0.44 0.53 0.65 0.80 0.84 0.75 0.66 0.60 0.53 0.51 0.51 0.52 0.45 0.40 0.47 0.71 0.88 0.77
0.84 0.76 0.67 0.59 0.58 0.57 0.58 0.57 0.57 0.58 0.59 0.61 0.63 0.65 0.72 0.80 0.89 0.91 0.75 0.64 0.56 0.48 0.44 0.40 0.41 0.47 0.54 0.61 0.70 0.78 0.73 0.72 0.65 0.60 0.52 0.45 0.42 0.47 0.57 0.74 0.99 1.20 1.28
0.44 0.39 0.36 0.36 0.36 0.36 0.37 0.40 0.40 0.42 0.46 0.50 0.54 0.62 0.74 0.84 0.91 0.95 0.86 0.70 0.63 0.59 0.62 0.56 0.45 0.51 0.50 0.57 0.62 0.55 0.43 0.45 0.44 0.41 0.40 0.40 0.47 0.54 0.57 0.65 0.84 1.08 1.27
0.34 0.30 0.29 0.31 0.32 0.32 0.31 0.34 0.35 0.34 0.37 0.41 0.42 0.54 0.64 0.68 0.74 0.81 0.84 0.79 0.70 0.69 0.78 0.73 0.54 0.47 0.47 0.50 0.47 0.37 0.35 0.28 0.21 0.16 0.15 0.15 0.20 0.31 0.45 0.60 0.74 0.83 0.95
0.37 0.36 0.38 0.41 0.42 0.44 0.43 0.40 0.39 0.37 0.42 0.47 0.49 0.54 0.61 0.63 0.64 0.68 0.75 0.80 0.79 0.74 0.77 0.76 0.54 0.41 0.39 0.40 0.41 0.38 0.43 0.28 0.12 0.08 0.07 0.08 0.08 0.11 0.19 0.35 0.53 0.66 0.86
0.40 0.42 0.44 0.47 0.48 0.46 0.43 0.39 0.39 0.40 0.47 0.52 0.55 0.63 0.67 0.66 0.62 0.67 0.73 0.81 0.86 0.82 0.73 0.61 0.47 0.38 0.36 0.37 0.35 0.29 0.28 0.22 0.12 0.08 0.08 0.08 0.08 0.10 0.15 0.27 0.41 0.54 0.69
0.38 0.42 0.45 0.46 0.46 0.46 0.44 0.45 0.45 0.48 0.51 0.54 0.55 0.60 0.61 0.59 0.61 0.64 0.68 0.71 0.74 0.77 0.66 0.53 0.43 0.41 0.41 0.46 0.42 0.32 0.24 0.20 0.16 0.11 0.08 0.06 0.07 0.12 0.19 0.26 0.36 0.45 0.51
0.44 0.45 0.47 0.48 0.47 0.49 0.55 0.59 0.58 0.62 0.64 0.63 0.61 0.61 0.57 0.51 0.52 0.51 0.55 0.57 0.60 0.66 0.57 0.46 0.42 0.40 0.43 0.48 0.48 0.40 0.31 0.24 0.22 0.14 0.09 0.07 0.08 0.09 0.12 0.15 0.24 0.37 0.47
0.48 0.50 0.54 0.60 0.63 0.64 0.63 0.67 0.70 0.71 0.65 0.60 0.58 0.54 0.50 0.47 0.45 0.42 0.42 0.39 0.38 0.44 0.45 0.43 0.45 0.45 0.44 0.41 0.41 0.42 0.39 0.37 0.29 0.20 0.13 0.09 0.09 0.10 0.10 0.11 0.16 0.25 0.38
0.38 0.43 0.51 0.61 0.70 0.75 0.78 0.73 0.65 0.62 0.56 0.52 0.48 0.44 0.44 0.44 0.42 0.39 0.39 0.33 0.29 0.33 0.39 0.38 0.40 0.42 0.42 0.39 0.39 0.43 0.45 0.48 0.39 0.29 0.24 0.19 0.16 0.12 0.12 0.10 0.11 0.16 0.27
0.35 0.44 0.52 0.59 0.71 0.78 0.76 0.72 0.61 0.56 0.53 0.45 0.39 0.36 0.37 0.35 0.35 0.36 0.33 0.28 0.23 0.23 0.23 0.26 0.28 0.28 0.29 0.30 0.31 0.34 0.43 0.54 0.50 0.39 0.36 0.36 0.34 0.30 0.26 0.20 0.12 0.10 0.17
0.25 0.31 0.35 0.41 0.45 0.49 0.51 0.47 0.41 0.37 0.35 0.31 0.29 0.28 0.27 0.25 0.29 0.30 0.26 0.23 0.19 0.15 0.13 0.16 0.17 0.20 0.22 0.23 0.24 0.32 0.44 0.50 0.58 0.59 0.55 0.54 0.51 0.47 0.40 0.30 0.20 0.12 0.10
0.16 0.19 0.20 0.22 0.24 0.26 0.23 0.19 0.19 0.19 0.20 0.20 0.19 0.19 0.17 0.18 0.22 0.23 0.20 0.15 0.14 0.12 0.10 0.13 0.13 0.12 0.13 0.16 0.19 0.29 0.45 0.61 0.71 0.76 0.73 0.72 0.60 0.53 0.49 0.41 0.30 0.18 0.13
0.16 0.17 0.17 0.16 0.17 0.18 0.14 0.11 0.10 0.09 0.10 0.12 0.13 0.13 0.14 0.14 0.16 0.16 0.13 0.10 0.09 0.09 0.10 0.10 0.09 0.08 0.07 0.09 0.13 0.17 0.25 0.40 0.59 0.70 0.76 0.86 0.84 0.75 0.70 0.62 0.51 0.33 0.22
0.21 0.20 0.19 0.17 0.17 0.18 0.13 0.09 0.06 0.07 0.09 0.09 0.10 0.11 0.10 0.10 0.13 0.11 0.08 0.08 0.08 0.07 0.07 0.07 0.05 0.04 0.03 0.02 0.03 0.04 0.04 0.07 0.16 0.26 0.32 0.51 0.70 0.79 0.85 0.84 0.73 0.58 0.42
0.29 0.26 0.23 0.23 0.24 0.26 0.22 0.13 0.08 0.07 0.09 0.10 0.11 0.12 0.12 0.10 0.09 0.07 0.07 0.07 0.06 0.04 0.04 0.04 0.02 0.01 0.01 0.01 0.00 0.01 0.02 0.02 0.04 0.08 0.09 0.16 0.28 0.41 0.58 0.66 0.67 0.64 0.58

GEFSMA_prec_meanprecacc_048.txt.gz
Total_Precipitation_Accumulation
0.16 0.17 0.19 0.18 0.16 0.23 0.40 0.50 0.48 0.54 0.64 0.61 0.51 0.45 0.47 0.51 0.53 0.66 0.46 0.44 0.40 0.40 0.64 0.71 0.59 0.53 0.47 0.38 0.31 0.27 0.24 0.25 0.23 0.18 0.19 0.26 0.35 0.40 0.36 0.31 0.31 0.32 0.26
0.28 0.31 0.27 0.31 0.27 0.33 0.43 0.54 0.58 0.74 0.75 0.76 0.61 0.57 0.55 0.56 0.60 0.70 0.63 0.62 0.54 0.47 0.52 0.58 0.61 0.55 0.49 0.44 0.31 0.24 0.20 0.20 0.19 0.14 0.13 0.16 0.25 0.35 0.31 0.30 0.28 0.28 0.24
0.46 0.50 0.44 0.41 0.51 0.61 0.65 0.69 0.75 0.88 0.84 0.81 0.65 0.65 0.61 0.55 0.54 0.54 0.55 0.60 0.63 0.58 0.51 0.49 0.52 0.50 0.48 0.48 0.39 0.32 0.23 0.18 0.15 0.11 0.09 0.08 0.11 0.17 0.17 0.19 0.22 0.21 0.19
0.64 0.64 0.51 0.47 0.78 0.86 0.86 0.95 0.97 1.03 1.13 1.13 0.90 0.77 0.71 0.63 0.50 0.48 0.46 0.48 0.54 0.46 0.43 0.48 0.48 0.48 0.55 0.58 0.54 0.53 0.40 0.26 0.16 0.11 0.08 0.06 0.08 0.12 0.10 0.09 0.12 0.12 0.11
0.73 0.81 0.63 0.64 0.96 1.07 1.06 1.07 1.21 1.37 1.35 1.36 1.16 0.93 0.76 0.61 0.47 0.44 0.41 0.38 0.39 0.39 0.38 0.38 0.36 0.42 0.63 0.78 0.72 0.67 0.59 0.43 0.28 0.20 0.16 0.14 0.12 0.14 0.11 0.07 0.08 0.06 0.05
0.78 0.99 0.78 0.84 1.11 1.14 1.10 1.23 1.35 1.47 1.38 1.45 1.32 0.91 0.69 0.50 0.45 0.36 0.32 0.29 0.24 0.24 0.29 0.35 0.42 0.45 0.62 0.71 0.69 0.68 0.71 0.64 0.45 0.32 0.30 0.26 0.21 0.18 0.13 0.09 0.07 0.06 0.04
0.85 1.12 0.97 1.04 1.14 1.08 1.04 1.22 1.33 1.27 1.16 1.54 1.47 0.90 0.51 0.37 0.28 0.18 0.20 0.19 0.15 0.16 0.25 0.36 0.45 0.51 0.51 0.53 0.58 0.57 0.67 0.74 0.65 0.50 0.41 0.35 0.29 0.22 0.18 0.15 0.10 0.10 0.07
0.96 1.08 1.11 1.06 1.09 1.05 0.92 0.95 1.12 1.05 0.84 1.23 1.37 1.22 0.71 0.37 0.23 0.13 0.15 0.15 0.18 0.24 0.29 0.32 0.38 0.50 0.51 0.53 0.64 0.49 0.53 0.72 0.80 0.73 0.57 0.41 0.31 0.24 0.21 0.20 0.15 0.13 0.11
1.15 1.19 1.10 1.05 1.02 1.02 0.86 0.80 0.95 1.00 0.83 0.92 1.24 1.48 1.05 0.53 0.37 0.19 0.22 0.27 0.34 0.42 0.44 0.47 0.50 0.53 0.57 0.66 0.78 0.83 0.54 0.59 0.77 0.97 0.88 0.60 0.36 0.24 0.21 0.24 0.26 0.20 0.16
1.36 1.25 1.07 0.93 0.83 0.82 0.74 0.72 0.83 0.91 0.92 0.76 0.86 1.01 1.02 0.91 0.75 0.40 0.26 0.33 0.48 0.54 0.55 0.60 0.57 0.56 0.61 0.74 0.86 0.98 0.72 0.56 0.60 0.87 0.97 0.85 0.62 0.39 0.29 0.34 0.51 0.49 0.34
1.32 1.18 1.04 0.91 0.82 0.74 0.67 0.65 0.68 0.72 0.74 0.68 0.69 0.73 0.82 0.86 0.82 0.68 0.45 0.46 0.48 0.40 0.40 0.45 0.56 0.71 0.71 0.79 0.96 1.03 0.97 0.90 0.82 0.75 0.73 0.71 0.68 0.57 0.48 0.54 0.80 0.96 0.83
0.95 0.88 0.79 0.69 0.63 0.61 0.60 0.58 0.57 0.58 0.59 0.62 0.64 0.65 0.73 0.80 0.89 0.92 0.76 0.64 0.57 0.50 0.48 0.46 0.52 0.66 0.72 0.74 0.82 0.93 0.90 0.87 0.82 0.75 0.66 0.59 0.54 0.58 0.65 0.83 1.09 1.32 1.42
0.54 0.49 0.46 0.46 0.44 0.43 0.43 0.43 0.42 0.43 0.47 0.51 0.54 0.62 0.74 0.85 0.92 0.96 0.87 0.71 0.64 0.61 0.67 0.62 0.54 0.61 0.61 0.69 0.74 0.65 0.50 0.51 0.49 0.48 0.47 0.47 0.53 0.60 0.62 0.70 0.91 1.18 1.41
0.42 0.39 0.40 0.41 0.39 0.39 0.38 0.39 0.38 0.36 0.37 0.41 0.42 0.54 0.64 0.68 0.74 0.82 0.86 0.81 0.71 0.72 0.83 0.79 0.61 0.56 0.58 0.61 0.57 0.44 0.40 0.33 0.26 0.20 0.19 0.19 0.23 0.34 0.48 0.63 0.78 0.88 1.01
0.40 0.40 0.44 0.47 0.49 0.51 0.49 0.44 0.42 0.40 0.44 0.48 0.49 0.55 0.61 0.63 0.65 0.69 0.76 0.82 0.82 0.78 0.81 0.81 0.59 0.47 0.47 0.47 0.49 0.42 0.47 0.32 0.15 0.11 0.10 0.10 0.11 0.14 0.22 0.39 0.57 0.70 0.91
0.41 0.44 0.46 0.51 0.52 0.51 0.47 0.44 0.43 0.43 0.49 0.53 0.56 0.64 0.67 0.67 0.63 0.67 0.75 0.84 0.91 0.89 0.79 0.66 0.52 0.45 0.44 0.43 0.40 0.32 0.30 0.24 0.14 0.10 0.09 0.09 0.10 0.12 0.17 0.30 0.44 0.57 0.72
0.39 0.42 0.45 0.47 0.48 0.48 0.47 0.48 0.48 0.50 0.54 0.56 0.56 0.61 0.61 0.60 0.62 0.64 0.70 0.74 0.79 0.84 0.72 0.58 0.49 0.49 0.48 0.50 0.45 0.34 0.26 0.21 0.17 0.12 0.09 0.07 0.09 0.14 0.22 0.28 0.37 0.46 0.53
0.44 0.45 0.48 0.48 0.47 0.50 0.56 0.61 0.60 0.65 0.67 0.66 0.64 0.62 0.57 0.52 0.53 0.52 0.56 0.60 0.64 0.73 0.64 0.52 0.47 0.46 0.50 0.53 0.51 0.42 0.33 0.26 0.24 0.16 0.10 0.08 0.09 0.11 0.13 0.16 0.25 0.38 0.48
0.49 0.50 0.54 0.61 0.63 0.64 0.64 0.68 0.72 0.73 0.67 0.62 0.60 0.56 0.51 0.48 0.46 0.43 0.43 0.42 0.43 0.50 0.52 0.50 0.52 0.52 0.51 0.46 0.46 0.46 0.42 0.41 0.32 0.23 0.15 0.11 0.10 0.11 0.11 0.12 0.17 0.26 0.39
0.39 0.44 0.51 0.61 0.70 0.75 0.78 0.74 0.67 0.64 0.58 0.54 0.50 0.46 0.46 0.45 0.43 0.39 0.41 0.36 0.33 0.38 0.44 0.44 0.45 0.49 0.48 0.45 0.44 0.47 0.50 0.53 0.44 0.33 0.27 0.21 0.17 0.13 0.13 0.11 0.12 0.17 0.28
0.35 0.44 0.52 0.60 0.71 0.79 0.77 0.73 0.63 0.59 0.56 0.48 0.42 0.38 0.38 0.36 0.36 0.36 0.34 0.30 0.26 0.25 0.27 0.30 0.33 0.34 0.36 0.37 0.37 0.39 0.48 0.59 0.55 0.43 0.39 0.38 0.35 0.30 0.27 0.21 0.14 0.11 0.19
0.25 0.31 0.36 0.41 0.45 0.49 0.52 0.47 0.42 0.40 0.38 0.34 0.32 0.31 0.29 0.27 0.30 0.31 0.27 0.26 0.23 0.18 0.17 0.22 0.22 0.25 0.28 0.29 0.29 0.37 0.48 0.53 0.62 0.63 0.57 0.56 0.52 0.48 0.40 0.31 0.21 0.12 0.11
0.17 0.20 0.21 0.23 0.24 0.26 0.23 0.19 0.20 0.20 0.23 0.23 0.23 0.22 0.20 0.20 0.24 0.24 0.21 0.17 0.16 0.15 0.14 0.18 0.19 0.16 0.18 0.21 0.24 0.33 0.49 0.65 0.76 0.80 0.75 0.74 0.61 0.53 0.49 0.41 0.30 0.18 0.13
0.16 0.18 0.18 0.16 0.17 0.18 0.15 0.12 0.11 0.11 0.13 0.15 0.17 0.17 0.18 0.17 0.18 0.17 0.14 0.11 0.10 0.11 0.12 0.13 0.14 0.12 0.10 0.11 0.17 0.21 0.29 0.44 0.65 0.74 0.77 0.86 0.84 0.75 0.70 0.62 0.51 0.33 0.22
0.22 0.20 0.20 0.18 0.18 0.18 0.14 0.11 0.10 0.11 0.14 0.14 0.15 0.16 0.15 0.14 0.17 0.14 0.11 0.10 0.09 0.09 0.11 0.12 0.10 0.09 0.07 0.06 0.06 0.08 0.09 0.12 0.21 0.29 0.33 0.51 0.70 0.79 0.85 0.84 0.73 0.58 0.42
0.30 0.27 0.24 0.24 0.26 0.27 0.23 0.16 0.13 0.14 0.17 0.19 0.19 0.19 0.19 0.15 0.13 0.11 0.10 0.10 0.09 0.07 0.07 0.07 0.06 0.05 0.04 0.04 0.03 0.03 0.05 0.06 0.07 0.11 0.10 0.16 0.28 0.41 0.58 0.66 0.67 0.64 0.58

GEFSMA_prec_meanprecacc_054.txt.gz
Total_Precipitation_Accumulation
0.26 0.26 0.27 0.26 0.23 0.31 0.49 0.62 0.60 0.66 0.76 0.73 0.61 0.55 0.58 0.63 0.63 0.73 0.53 0.49 0.49 0.54 0.83 0.94 0.82 0.75 0.68 0.59 0.48 0.42 0.38 0.37 0.34 0.26 0.24 0.31 0.40 0.46 0.41 0.34 0.33 0.33 0.27
0.42 0.42 0.37 0.39 0.34 0.38 0.48 0.62 0.66 0.81 0.81 0.84 0.67 0.62 0.61 0.63 0.67 0.77 0.69 0.67 0.60 0.56 0.67 0.77 0.81 0.77 0.70 0.65 0.51 0.42 0.37 0.35 0.33 0.25 0.21 0.23 0.31 0.41 0.39 0.38 0.35 0.33 0.29
0.66 0.66 0.54 0.49 0.58 0.66 0.68 0.73 0.79 0.90 0.88 0.85 0.68 0.69 0.65 0.59 0.58 0.59 0.59 0.63 0.66 0.63 0.61 0.63 0.69 0.67 0.67 0.70 0.62 0.53 0.41 0.34 0.30 0.24 0.21 0.17 0.18 0.24 0.26 0.29 0.32 0.32 0.28
0.84 0.79 0.61 0.54 0.82 0.88 0.88 0.97 0.99 1.04 1.14 1.14 0.91 0.79 0.73 0.64 0.52 0.50 0.48 0.51 0.56 0.49 0.48 0.58 0.63 0.62 0.72 0.80 0.82 0.82 0.65 0.47 0.36 0.28 0.21 0.16 0.15 0.17 0.16 0.16 0.21 0.23 0.21
0.91 0.94 0.71 0.68 0.98 1.08 1.07 1.08 1.22 1.37 1.35 1.37 1.17 0.94 0.76 0.63 0.48 0.45 0.42 0.40 0.41 0.41 0.41 0.43 0.45 0.52 0.76 0.95 0.96 0.95 0.89 0.70 0.49 0.38 0.33 0.28 0.22 0.21 0.16 0.12 0.14 0.13 0.12
0.93 1.09 0.83 0.87 1.13 1.16 1.11 1.24 1.35 1.47 1.38 1.45 1.32 0.91 0.70 0.51 0.46 0.36 0.32 0.29 0.25 0.26 0.30 0.37 0.46 0.50 0.68 0.81 0.84 0.87 0.93 0.87 0.67 0.51 0.49 0.44 0.37 0.30 0.21 0.15 0.13 0.13 0.11
0.98 1.20 1.01 1.06 1.15 1.09 1.04 1.22 1.33 1.27 1.16 1.54 1.47 0.90 0.51 0.37 0.28 0.18 0.20 0.19 0.16 0.17 0.25 0.36 0.46 0.53 0.53 0.56 0.65 0.68 0.82 0.91 0.83 0.68 0.62 0.56 0.51 0.39 0.30 0.25 0.18 0.16 0.14
1.07 1.15 1.16 1.10 1.10 1.06 0.92 0.95 1.12 1.05 0.84 1.23 1.37 1.22 0.71 0.37 0.23 0.13 0.15 0.15 0.18 0.24 0.29 0.33 0.39 0.50 0.53 0.56 0.68 0.54 0.61 0.83 0.94 0.90 0.78 0.62 0.51 0.41 0.35 0.32 0.25 0.20 0.17
1.26 1.28 1.17 1.09 1.04 1.04 0.87 0.80 0.95 1.00 0.83 0.92 1.24 1.48 1.05 0.53 0.37 0.19 0.22 0.27 0.34 0.42 0.44 0.47 0.50 0.53 0.58 0.67 0.80 0.86 0.58 0.64 0.86 1.13 1.06 0.79 0.54 0.40 0.35 0.36 0.38 0.29 0.24
1.53 1.40 1.17 1.00 0.88 0.85 0.77 0.73 0.83 0.91 0.92 0.76 0.86 1.01 1.02 0.91 0.75 0.40 0.26 0.33 0.48 0.54 0.55 0.60 0.57 0.56 0.62 0.75 0.87 1.00 0.74 0.59 0.65 0.98 1.12 1.01 0.78 0.55 0.43 0.47 0.64 0.59 0.41
1.51 1.34 1.17 1.02 0.90 0.80 0.72 0.68 0.69 0.72 0.74 0.68 0.69 0.73 0.82 0.86 0.82 0.68 0.45 0.46 0.48 0.40 0.40 0.45 0.56 0.71 0.71 0.79 0.97 1.05 0.99 0.92 0.86 0.81 0.81 0.82 0.80 0.70 0.60 0.65 0.92 1.09 0.93
1.15 1.06 0.95 0.83 0.75 0.70 0.68 0.65 0.62 0.60 0.60 0.62 0.64 0.65 0.73 0.80 0.89 0.93 0.76 0.64 0.57 0.50 0.48 0.46 0.52 0.67 0.72 0.74 0.83 0.95 0.92 0.90 0.85 0.78 0.69 0.64 0.61 0.66 0.76 0.94 1.21 1.45 1.56
0.64 0.61 0.60 0.58 0.57 0.55 0.54 0.53 0.51 0.50 0.52 0.53 0.56 0.63 0.75 0.85 0.92 0.96 0.87 0.72 0.64 0.61 0.67 0.62 0.54 0.61 0.62 0.70 0.75 0.66 0.52 0.54 0.51 0.50 0.50 0.52 0.59 0.67 0.71 0.78 1.00 1.28 1.52
0.46 0.44 0.46 0.48 0.48 0.50 0.48 0.48 0.47 0.45 0.45 0.46 0.45 0.56 0.66 0.69 0.74 0.82 0.86 0.82 0.72 0.72 0.83 0.79 0.61 0.56 0.58 0.62 0.60 0.46 0.41 0.35 0.28 0.23 0.22 0.23 0.28 0.42 0.57 0.71 0.84 0.94 1.07
0.42 0.42 0.45 0.49 0.52 0.55 0.55 0.52 0.49 0.47 0.51 0.54 0.55 0.59 0.64 0.65 0.65 0.69 0.77 0.83 0.83 0.79 0.81 0.81 0.59 0.48 0.47 0.48 0.50 0.44 0.47 0.33 0.17 0.12 0.12 0.13 0.13 0.17 0.26 0.43 0.61 0.74 0.95
0.42 0.45 0.46 0.51 0.54 0.53 0.51 0.49 0.48 0.50 0.56 0.60 0.62 0.69 0.71 0.69 0.64 0.68 0.75 0.85 0.92 0.91 0.80 0.66 0.53 0.46 0.45 0.44 0.41 0.33 0.30 0.25 0.15 0.11 0.10 0.11 0.12 0.14 0.19 0.33 0.48 0.61 0.76
0.39 0.43 0.46 0.48 0.48 0.48 0.48 0.50 0.51 0.56 0.60 0.64 0.65 0.69 0.67 0.64 0.65 0.66 0.71 0.74 0.79 0.86 0.74 0.58 0.50 0.50 0.49 0.52 0.47 0.35 0.26 0.22 0.17 0.13 0.09 0.08 0.10 0.16 0.24 0.31 0.41 0.50 0.57
0.45 0.46 0.48 0.49 0.48 0.51 0.57 0.61 0.61 0.66 0.70 0.70 0.70 0.70 0.65 0.59 0.58 0.55 0.58 0.60 0.65 0.73 0.65 0.53 0.48 0.48 0.52 0.55 0.53 0.44 0.34 0.27 0.25 0.17 0.11 0.09 0.09 0.12 0.15 0.19 0.28 0.42 0.52
0.49 0.50 0.54 0.61 0.64 0.65 0.65 0.69 0.73 0.73 0.68 0.63 0.62 0.59 0.55 0.53 0.51 0.47 0.46 0.44 0.44 0.51 0.54 0.52 0.54 0.53 0.54 0.49 0.48 0.48 0.44 0.42 0.32 0.24 0.16 0.12 0.11 0.12 0.12 0.13 0.18 0.28 0.41
0.39 0.44 0.51 0.61 0.70 0.76 0.79 0.75 0.68 0.65 0.59 0.55 0.51 0.47 0.47 0.47 0.45 0.42 0.43 0.38 0.35 0.40 0.47 0.47 0.49 0.52 0.52 0.48 0.47 0.50 0.52 0.55 0.45 0.33 0.28 0.22 0.19 0.15 0.14 0.12 0.13 0.18 0.29
0.35 0.44 0.53 0.60 0.71 0.79 0.77 0.73 0.63 0.59 0.57 0.49 0.43 0.39 0.39 0.37 0.37 0.38 0.36 0.31 0.27 0.27 0.29 0.33 0.36 0.38 0.41 0.41 0.40 0.41 0.49 0.61 0.58 0.44 0.40 0.39 0.36 0.31 0.27 0.21 0.14 0.12 0.19
0.26 0.31 0.36 0.41 0.45 0.49 0.52 0.48 0.42 0.40 0.39 0.35 0.33 0.32 0.30 0.28 0.31 0.32 0.28 0.27 0.24 0.19 0.18 0.24 0.25 0.28 0.31 0.31 0.31 0.38 0.49 0.54 0.64 0.64 0.59 0.58 0.53 0.49 0.41 0.31 0.22 0.13 0.12
0.17 0.20 0.21 0.23 0.24 0.26 0.23 0.19 0.20 0.20 0.23 0.24 0.23 0.23 0.21 0.21 0.25 0.26 0.23 0.18 0.17 0.16 0.15 0.19 0.21 0.18 0.20 0.23 0.26 0.36 0.51 0.66 0.76 0.81 0.76 0.75 0.62 0.55 0.50 0.42 0.31 0.19 0.13
0.17 0.18 0.18 0.17 0.17 0.18 0.15 0.12 0.11 0.11 0.13 0.16 0.18 0.18 0.19 0.19 0.20 0.19 0.16 0.13 0.11 0.12 0.14 0.15 0.16 0.15 0.13 0.15 0.20 0.25 0.32 0.46 0.65 0.75 0.78 0.88 0.85 0.76 0.70 0.63 0.51 0.33 0.22
0.23 0.21 0.20 0.19 0.18 0.18 0.14 0.11 0.10 0.11 0.14 0.15 0.16 0.17 0.17 0.16 0.20 0.17 0.14 0.12 0.11 0.11 0.13 0.15 0.14 0.14 0.13 0.12 0.11 0.12 0.13 0.14 0.23 0.30 0.34 0.51 0.71 0.79 0.86 0.85 0.74 0.58 0.42
0.31 0.28 0.25 0.25 0.26 0.27 0.23 0.16 0.13 0.14 0.18 0.20 0.21 0.21 0.22 0.19 0.19 0.17 0.14 0.15 0.13 0.10 0.09 0.11 0.11 0.12 0.11 0.10 0.09 0.07 0.07 0.08 0.09 0.13 0.11 0.16 0.29 0.41 0.58 0.66 0.67 0.65 0.58

GEFSMA_prec_meanprecacc_060.txt.gz
Total_Precipitation_Accumulation
0.35 0.35 0.34 0.34 0.31 0.40 0.58 0.74 0.74 0.81 0.90 0.88 0.77 0.70 0.71 0.73 0.71 0.81 0.59 0.54 0.55 0.61 0.89 0.99 0.88 0.80 0.73 0.65 0.57 0.52 0.49 0.49 0.44 0.34 0.29 0.36 0.45 0.51 0.47 0.41 0.38 0.36 0.30
0.53 0.53 0.46 0.48 0.43 0.48 0.58 0.74 0.79 0.97 0.96 0.98 0.77 0.72 0.73 0.77 0.77 0.85 0.76 0.74 0.64 0.61 0.73 0.83 0.88 0.84 0.77 0.72 0.60 0.52 0.47 0.46 0.42 0.32 0.28 0.28 0.36 0.47 0.47 0.48 0.45 0.41 0.35
0.79 0.78 0.66 0.60 0.69 0.77 0.80 0.85 0.92 1.04 0.99 0.94 0.75 0.78 0.75 0.69 0.65 0.66 0.65 0.69 0.70 0.66 0.65 0.67 0.75 0.74 0.74 0.78 0.73 0.65 0.52 0.44 0.39 0.32 0.28 0.24 0.23 0.29 0.31 0.37 0.42 0.43 0.38
1.03 0.95 0.75 0.68 0.95 1.00 1.00 1.07 1.09 1.14 1.23 1.22 0.98 0.86 0.81 0.71 0.57 0.55 0.52 0.55 0.59 0.52 0.52 0.62 0.67 0.67 0.76 0.86 0.92 0.94 0.75 0.56 0.43 0.35 0.28 0.22 0.20 0.21 0.19 0.20 0.28 0.30 0.27
1.20 1.17 0.88 0.81 1.09 1.20 1.16 1.13 1.28 1.44 1.41 1.42 1.20 0.98 0.80 0.66 0.52 0.48 0.44 0.41 0.43 0.44 0.44 0.46 0.46 0.54 0.78 0.99 1.03 1.05 0.99 0.78 0.56 0.44 0.40 0.36 0.29 0.26 0.19 0.15 0.17 0.17 0.16
1.19 1.35 1.03 0.99 1.22 1.24 1.18 1.29 1.41 1.53 1.42 1.48 1.34 0.92 0.71 0.51 0.46 0.37 0.33 0.30 0.26 0.27 0.31 0.39 0.48 0.50 0.69 0.83 0.88 0.93 1.01 0.95 0.74 0.56 0.54 0.51 0.44 0.36 0.25 0.18 0.15 0.15 0.14
1.27 1.48 1.23 1.20 1.25 1.15 1.09 1.27 1.38 1.31 1.19 1.56 1.48 0.90 0.51 0.37 0.28 0.18 0.20 0.19 0.16 0.17 0.25 0.38 0.48 0.54 0.54 0.57 0.66 0.71 0.86 0.97 0.89 0.73 0.66 0.62 0.56 0.44 0.34 0.27 0.20 0.18 0.15
1.33 1.38 1.33 1.22 1.19 1.12 0.97 0.99 1.17 1.08 0.86 1.25 1.38 1.23 0.71 0.37 0.23 0.13 0.15 0.15 0.18 0.24 0.30 0.33 0.39 0.51 0.54 0.57 0.69 0.55 0.63 0.86 0.99 0.96 0.83 0.68 0.56 0.45 0.38 0.35 0.27 0.22 0.18
1.44 1.48 1.35 1.20 1.12 1.10 0.92 0.85 0.99 1.03 0.85 0.94 1.25 1.48 1.05 0.53 0.37 0.19 0.22 0.27 0.34 0.42 0.44 0.47 0.50 0.54 0.59 0.68 0.81 0.87 0.58 0.65 0.90 1.19 1.12 0.85 0.58 0.43 0.38 0.39 0.40 0.32 0.26
1.62 1.52 1.32 1.13 0.96 0.93 0.83 0.78 0.86 0.93 0.95 0.77 0.87 1.02 1.02 0.91 0.75 0.40 0.26 0.33 0.48 0.54 0.55 0.60 0.57 0.56 0.62 0.76 0.88 1.02 0.74 0.59 0.66 1.02 1.19 1.08 0.82 0.57 0.46 0.50 0.68 0.64 0.45
1.60 1.43 1.27 1.11 0.99 0.88 0.79 0.75 0.73 0.74 0.77 0.70 0.71 0.74 0.83 0.86 0.82 0.68 0.45 0.46 0.48 0.40 0.40 0.45 0.56 0.71 0.71 0.79 0.98 1.06 1.00 0.93 0.86 0.82 0.85 0.88 0.86 0.74 0.63 0.69 0.97 1.15 0.99
1.21 1.14 1.05 0.92 0.84 0.81 0.78 0.73 0.68 0.65 0.64 0.66 0.67 0.67 0.74 0.81 0.90 0.93 0.76 0.65 0.57 0.50 0.48 0.46 0.52 0.67 0.72 0.74 0.83 0.95 0.92 0.91 0.85 0.79 0.71 0.67 0.65 0.71 0.81 0.99 1.27 1.52 1.64
0.67 0.64 0.65 0.66 0.66 0.66 0.64 0.64 0.60 0.58 0.59 0.60 0.61 0.67 0.78 0.87 0.94 0.97 0.88 0.72 0.64 0.61 0.67 0.62 0.54 0.61 0.62 0.71 0.75 0.66 0.53 0.54 0.52 0.51 0.51 0.53 0.62 0.70 0.74 0.82 1.05 1.35 1.60
0.49 0.46 0.48 0.51 0.52 0.56 0.56 0.58 0.58 0.55 0.55 0.55 0.54 0.64 0.73 0.73 0.78 0.85 0.88 0.83 0.73 0.73 0.83 0.79 0.61 0.56 0.59 0.63 0.60 0.47 0.42 0.35 0.28 0.24 0.23 0.24 0.29 0.44 0.59 0.75 0.88 0.98 1.12
0.44 0.44 0.47 0.51 0.54 0.58 0.59 0.56 0.56 0.57 0.64 0.67 0.67 0.70 0.74 0.74 0.73 0.75 0.81 0.85 0.85 0.80 0.82 0.81 0.60 0.49 0.48 0.49 0.51 0.44 0.48 0.34 0.18 0.13 0.13 0.13 0.14 0.18 0.27 0.45 0.64 0.78 0.98
0.42 0.46 0.48 0.53 0.55 0.54 0.53 0.51 0.51 0.54 0.63 0.72 0.79 0.87 0.86 0.83 0.77 0.79 0.82 0.89 0.96 0.93 0.82 0.67 0.54 0.47 0.45 0.44 0.42 0.33 0.31 0.26 0.16 0.12 0.11 0.12 0.13 0.15 0.20 0.34 0.49 0.62 0.78
0.39 0.43 0.47 0.49 0.50 0.50 0.49 0.51 0.53 0.58 0.64 0.69 0.73 0.83 0.87 0.85 0.83 0.81 0.83 0.82 0.84 0.90 0.78 0.61 0.52 0.51 0.50 0.52 0.47 0.36 0.27 0.22 0.18 0.14 0.10 0.09 0.11 0.17 0.25 0.32 0.42 0.51 0.58
0.45 0.46 0.48 0.50 0.49 0.51 0.58 0.63 0.62 0.68 0.72 0.73 0.74 0.76 0.76 0.77 0.81 0.77 0.76 0.74 0.75 0.81 0.72 0.59 0.53 0.52 0.54 0.56 0.53 0.44 0.35 0.27 0.25 0.17 0.12 0.10 0.10 0.13 0.17 0.20 0.29 0.43 0.53
0.50 0.51 0.55 0.62 0.64 0.65 0.65 0.70 0.74 0.75 0.70 0.65 0.64 0.63 0.62 0.63 0.66 0.68 0.70 0.63 0.59 0.62 0.64 0.61 0.61 0.59 0.56 0.51 0.49 0.49 0.45 0.42 0.32 0.24 0.16 0.13 0.12 0.13 0.13 0.14 0.19 0.29 0.43
0.40 0.45 0.52 0.62 0.71 0.77 0.80 0.75 0.69 0.66 0.61 0.57 0.53 0.49 0.51 0.53 0.55 0.56 0.61 0.58 0.54 0.56 0.59 0.58 0.58 0.60 0.56 0.50 0.48 0.51 0.53 0.56 0.46 0.34 0.28 0.23 0.19 0.16 0.14 0.12 0.13 0.19 0.31
0.37 0.45 0.55 0.62 0.73 0.80 0.78 0.74 0.64 0.60 0.58 0.52 0.46 0.41 0.41 0.40 0.42 0.46 0.49 0.48 0.46 0.47 0.46 0.46 0.47 0.47 0.46 0.44 0.42 0.42 0.50 0.62 0.59 0.45 0.40 0.39 0.36 0.31 0.27 0.22 0.15 0.13 0.21
0.29 0.36 0.41 0.46 0.49 0.50 0.52 0.48 0.43 0.41 0.40 0.37 0.36 0.35 0.33 0.30 0.33 0.35 0.33 0.36 0.37 0.34 0.36 0.42 0.39 0.38 0.36 0.34 0.33 0.39 0.50 0.55 0.65 0.66 0.60 0.59 0.54 0.49 0.41 0.31 0.23 0.15 0.14
0.23 0.26 0.28 0.30 0.30 0.31 0.25 0.20 0.21 0.21 0.25 0.26 0.26 0.26 0.23 0.23 0.27 0.27 0.25 0.22 0.23 0.23 0.26 0.34 0.37 0.32 0.30 0.28 0.29 0.37 0.52 0.67 0.77 0.82 0.78 0.77 0.64 0.56 0.51 0.43 0.33 0.21 0.15
0.25 0.26 0.26 0.25 0.26 0.25 0.18 0.13 0.12 0.12 0.16 0.18 0.21 0.22 0.22 0.21 0.22 0.22 0.19 0.15 0.14 0.15 0.17 0.21 0.26 0.30 0.30 0.29 0.27 0.28 0.34 0.49 0.67 0.76 0.79 0.89 0.87 0.77 0.72 0.64 0.52 0.35 0.24
0.32 0.30 0.28 0.27 0.27 0.27 0.18 0.12 0.10 0.12 0.17 0.18 0.19 0.20 0.20 0.19 0.22 0.19 0.16 0.16 0.15 0.15 0.16 0.19 0.20 0.24 0.27 0.26 0.24 0.18 0.17 0.18 0.25 0.32 0.35 0.53 0.72 0.80 0.87 0.86 0.74 0.59 0.43
0.41 0.37 0.33 0.33 0.34 0.36 0.29 0.17 0.14 0.16 0.22 0.24 0.25 0.24 0.23 0.21 0.20 0.17 0.16 0.18 0.17 0.15 0.14 0.15 0.16 0.18 0.18 0.20 0.19 0.15 0.11 0.11 0.11 0.14 0.12 0.17 0.30 0.42 0.59 0.68 0.68 0.65 0.59

GEFSMA_prec_meanprecacc_066.txt.gz
Total_Precipitation_Accumulation
0.45 0.45 0.44 0.42 0.37 0.48 0.69 0.87 0.85 0.94 1.06 1.03 0.92 0.86 0.84 0.81 0.77 0.87 0.73 0.74 0.71 0.70 0.93 1.02 0.89 0.81 0.75 0.67 0.60 0.55 0.54 0.55 0.51 0.39 0.34 0.38 0.46 0.52 0.48 0.42 0.38 0.37 0.31
0.68 0.68 0.60 0.61 0.52 0.57 0.69 0.87 0.94 1.18 1.15 1.15 0.90 0.86 0.87 0.91 0.87 0.93 0.89 0.97 0.84 0.72 0.79 0.87 0.90 0.87 0.80 0.75 0.63 0.56 0.51 0.51 0.48 0.36 0.31 0.31 0.38 0.48 0.48 0.49 0.45 0.42 0.36
0.94 0.93 0.81 0.75 0.83 0.92 0.96 1.01 1.08 1.23 1.17 1.08 0.88 0.90 0.89 0.81 0.75 0.76 0.77 0.89 0.90 0.76 0.71 0.72 0.78 0.78 0.79 0.83 0.77 0.70 0.56 0.48 0.42 0.35 0.30 0.25 0.25 0.31 0.33 0.38 0.42 0.43 0.38
1.17 1.12 0.91 0.86 1.15 1.20 1.19 1.25 1.26 1.30 1.38 1.36 1.12 0.97 0.93 0.84 0.67 0.65 0.60 0.65 0.73 0.61 0.64 0.69 0.73 0.71 0.80 0.90 0.96 1.00 0.80 0.59 0.45 0.36 0.29 0.24 0.22 0.23 0.20 0.22 0.29 0.30 0.27
1.33 1.32 1.06 1.02 1.32 1.43 1.38 1.30 1.46 1.64 1.59 1.59 1.33 1.08 0.90 0.76 0.60 0.55 0.52 0.47 0.50 0.51 0.53 0.54 0.51 0.58 0.82 1.02 1.07 1.11 1.06 0.83 0.58 0.46 0.42 0.37 0.31 0.28 0.21 0.17 0.19 0.18 0.17
1.35 1.52 1.23 1.22 1.46 1.46 1.39 1.49 1.63 1.76 1.61 1.63 1.44 1.00 0.78 0.57 0.52 0.42 0.37 0.33 0.29 0.29 0.33 0.44 0.56 0.54 0.72 0.86 0.91 0.98 1.07 1.00 0.78 0.58 0.56 0.53 0.47 0.39 0.29 0.22 0.17 0.17 0.14
1.46 1.72 1.48 1.46 1.51 1.37 1.31 1.51 1.62 1.53 1.38 1.73 1.62 0.98 0.57 0.42 0.32 0.21 0.22 0.20 0.16 0.17 0.26 0.41 0.54 0.59 0.60 0.60 0.68 0.73 0.90 1.02 0.94 0.77 0.69 0.65 0.61 0.48 0.38 0.32 0.23 0.20 0.16
1.47 1.57 1.56 1.47 1.45 1.39 1.23 1.25 1.44 1.31 1.03 1.41 1.51 1.31 0.78 0.42 0.28 0.17 0.16 0.16 0.18 0.24 0.30 0.34 0.42 0.55 0.59 0.64 0.72 0.56 0.65 0.90 1.04 1.01 0.88 0.73 0.61 0.48 0.42 0.38 0.31 0.25 0.20
1.53 1.60 1.49 1.35 1.30 1.29 1.13 1.06 1.19 1.22 1.01 1.08 1.37 1.57 1.12 0.59 0.41 0.22 0.23 0.27 0.34 0.42 0.44 0.47 0.51 0.54 0.60 0.71 0.84 0.89 0.59 0.66 0.92 1.22 1.16 0.89 0.62 0.46 0.41 0.42 0.43 0.35 0.30
1.68 1.60 1.42 1.25 1.09 1.07 1.01 0.95 1.06 1.12 1.11 0.90 1.00 1.10 1.06 0.97 0.81 0.45 0.28 0.33 0.48 0.54 0.55 0.60 0.57 0.56 0.62 0.76 0.91 1.03 0.75 0.60 0.67 1.04 1.23 1.13 0.86 0.61 0.49 0.53 0.71 0.67 0.48
1.65 1.49 1.35 1.22 1.11 1.02 0.94 0.91 0.92 0.93 0.94 0.84 0.85 0.86 0.92 0.93 0.86 0.73 0.50 0.48 0.49 0.40 0.40 0.45 0.56 0.71 0.71 0.80 1.00 1.07 1.00 0.93 0.86 0.83 0.86 0.91 0.90 0.77 0.67 0.72 1.01 1.21 1.04
1.23 1.17 1.09 0.98 0.93 0.92 0.90 0.86 0.83 0.82 0.83 0.83 0.82 0.83 0.89 0.93 0.97 0.98 0.81 0.69 0.60 0.50 0.48 0.46 0.52 0.67 0.72 0.75 0.84 0.96 0.92 0.91 0.85 0.79 0.72 0.68 0.67 0.74 0.84 1.03 1.32 1.59 1.72
0.69 0.67 0.68 0.69 0.70 0.71 0.71 0.73 0.71 0.70 0.75 0.78 0.78 0.84 0.94 1.01 1.06 1.06 0.97 0.77 0.67 0.62 0.67 0.62 0.54 0.61 0.62 0.72 0.76 0.66 0.53 0.54 0.52 0.51 0.51 0.53 0.62 0.71 0.76 0.85 1.09 1.40 1.66
0.50 0.48 0.50 0.53 0.55 0.59 0.60 0.63 0.63 0.62 0.63 0.65 0.66 0.79 0.89 0.89 0.95 1.00 1.00 0.94 0.85 0.80 0.86 0.80 0.62 0.57 0.60 0.64 0.60 0.47 0.42 0.35 0.28 0.24 0.23 0.24 0.30 0.44 0.60 0.75 0.89 1.01 1.16
0.44 0.44 0.48 0.53 0.56 0.59 0.60 0.59 0.59 0.60 0.68 0.72 0.74 0.81 0.87 0.88 0.90 0.93 0.98 1.01 1.02 0.97 0.97 0.91 0.65 0.52 0.50 0.50 0.51 0.44 0.48 0.34 0.18 0.13 0.13 0.13 0.14 0.18 0.28 0.46 0.65 0.79 1.01
0.43 0.46 0.48 0.54 0.57 0.56 0.54 0.53 0.54 0.57 0.66 0.75 0.84 0.94 0.95 0.94 0.91 0.95 1.01 1.11 1.18 1.12 0.99 0.81 0.66 0.58 0.53 0.46 0.42 0.34 0.31 0.26 0.16 0.12 0.11 0.12 0.13 0.15 0.20 0.34 0.49 0.63 0.80
0.41 0.44 0.48 0.50 0.51 0.52 0.51 0.53 0.54 0.60 0.67 0.72 0.76 0.87 0.94 0.95 0.95 0.95 1.00 1.03 1.09 1.16 1.02 0.82 0.75 0.74 0.70 0.61 0.49 0.37 0.27 0.23 0.18 0.14 0.10 0.09 0.11 0.17 0.25 0.32 0.42 0.52 0.59
0.48 0.48 0.51 0.52 0.51 0.53 0.60 0.66 0.65 0.70 0.74 0.76 0.78 0.80 0.79 0.84 0.92 0.91 0.92 0.92 0.96 1.07 0.97 0.84 0.84 0.82 0.79 0.72 0.62 0.49 0.36 0.28 0.25 0.17 0.12 0.10 0.10 0.13 0.17 0.21 0.30 0.44 0.54
0.53 0.54 0.59 0.66 0.68 0.68 0.68 0.73 0.78 0.78 0.72 0.68 0.68 0.68 0.66 0.67 0.72 0.79 0.85 0.81 0.78 0.85 0.90 0.90 0.91 0.92 0.86 0.72 0.63 0.56 0.47 0.43 0.32 0.24 0.16 0.13 0.12 0.13 0.13 0.14 0.20 0.29 0.43
0.43 0.49 0.57 0.67 0.76 0.81 0.83 0.79 0.73 0.70 0.65 0.60 0.56 0.53 0.55 0.58 0.59 0.62 0.70 0.72 0.72 0.76 0.82 0.84 0.89 0.94 0.86 0.75 0.67 0.61 0.57 0.58 0.46 0.34 0.28 0.23 0.19 0.16 0.15 0.13 0.13 0.20 0.31
0.40 0.51 0.62 0.70 0.81 0.88 0.83 0.79 0.70 0.65 0.63 0.56 0.50 0.45 0.44 0.44 0.46 0.51 0.55 0.57 0.60 0.65 0.68 0.71 0.75 0.80 0.76 0.70 0.62 0.55 0.56 0.65 0.61 0.45 0.40 0.39 0.36 0.31 0.28 0.22 0.15 0.14 0.21
0.35 0.43 0.50 0.56 0.59 0.56 0.57 0.54 0.49 0.47 0.48 0.45 0.42 0.41 0.37 0.33 0.36 0.38 0.37 0.42 0.47 0.47 0.53 0.64 0.66 0.70 0.68 0.60 0.55 0.56 0.58 0.59 0.67 0.67 0.60 0.59 0.54 0.50 0.41 0.31 0.23 0.15 0.15
0.31 0.35 0.38 0.41 0.42 0.42 0.35 0.30 0.28 0.28 0.32 0.34 0.35 0.36 0.28 0.25 0.30 0.31 0.28 0.26 0.29 0.32 0.36 0.49 0.59 0.60 0.61 0.58 0.54 0.56 0.62 0.74 0.82 0.84 0.79 0.77 0.64 0.56 0.51 0.43 0.33 0.21 0.16
0.35 0.36 0.35 0.36 0.40 0.38 0.29 0.22 0.19 0.18 0.22 0.25 0.28 0.32 0.30 0.27 0.27 0.27 0.25 0.20 0.18 0.21 0.24 0.29 0.37 0.48 0.61 0.67 0.60 0.53 0.53 0.59 0.74 0.81 0.82 0.91 0.88 0.78 0.72 0.64 0.53 0.35 0.25
0.42 0.41 0.38 0.37 0.39 0.40 0.30 0.20 0.17 0.19 0.25 0.24 0.25 0.27 0.28 0.27 0.28 0.22 0.21 0.22 0.21 0.20 0.20 0.24 0.28 0.37 0.48 0.59 0.66 0.50 0.36 0.30 0.33 0.36 0.37 0.54 0.73 0.81 0.87 0.86 0.74 0.59 0.44
0.51 0.47 0.43 0.44 0.47 0.51 0.43 0.25 0.20 0.23 0.29 0.32 0.35 0.32 0.29 0.28 0.26 0.20 0.20 0.23 0.22 0.20 0.19 0.20 0.21 0.26 0.30 0.37 0.46 0.44 0.32 0.23 0.18 0.18 0.14 0.19 0.31 0.42 0.59 0.68 0.68 0.65 0.59

GEFSMA_prec_meanprecacc_072.txt.gz
Total_Precipitation_Accumulation
0.53 0.51 0.50 0.51 0.49 0.63 0.87 1.06 1.06 1.13 1.23 1.17 1.02 0.95 0.92 0.89 0.86 0.96 0.84 0.90 0.87 0.90 1.16 1.20 1.02 0.88 0.80 0.70 0.62 0.56 0.55 0.56 0.52 0.40 0.34 0.38 0.46 0.52 0.49 0.42 0.39 0.37 0.31
0.81 0.79 0.71 0.73 0.64 0.71 0.85 1.06 1.18 1.44 1.40 1.35 1.06 0.99 1.01 1.05 0.99 1.06 1.07 1.19 1.08 0.97 1.08 1.09 1.05 0.97 0.87 0.79 0.66 0.58 0.53 0.53 0.49 0.37 0.32 0.31 0.39 0.49 0.49 0.49 0.46 0.42 0.36
1.14 1.10 0.95 0.86 0.92 1.02 1.09 1.17 1.28 1.49 1.43 1.31 1.05 1.06 1.07 0.99 0.88 0.88 0.94 1.07 1.06 0.94 0.92 0.92 0.93 0.91 0.89 0.89 0.81 0.73 0.59 0.49 0.44 0.36 0.31 0.26 0.26 0.31 0.34 0.39 0.44 0.44 0.39
1.38 1.32 1.08 0.97 1.25 1.32 1.31 1.39 1.42 1.49 1.57 1.57 1.30 1.14 1.09 0.99 0.83 0.81 0.79 0.81 0.85 0.70 0.74 0.84 0.90 0.87 0.94 1.01 1.02 1.03 0.84 0.61 0.46 0.37 0.31 0.26 0.24 0.24 0.21 0.23 0.30 0.31 0.28
1.48 1.48 1.20 1.11 1.40 1.54 1.50 1.42 1.60 1.79 1.74 1.73 1.49 1.24 1.02 0.86 0.71 0.67 0.68 0.65 0.62 0.60 0.61 0.63 0.64 0.71 0.94 1.14 1.17 1.18 1.12 0.86 0.60 0.48 0.44 0.39 0.33 0.30 0.23 0.18 0.20 0.19 0.18
1.41 1.60 1.32 1.31 1.58 1.63 1.58 1.67 1.80 1.95 1.80 1.82 1.62 1.16 0.92 0.68 0.62 0.51 0.45 0.46 0.40 0.37 0.40 0.52 0.63 0.60 0.80 0.94 1.01 1.09 1.17 1.06 0.81 0.61 0.59 0.55 0.50 0.41 0.31 0.24 0.20 0.19 0.16
1.49 1.75 1.53 1.53 1.60 1.52 1.50 1.68 1.80 1.73 1.58 1.95 1.86 1.17 0.71 0.54 0.45 0.30 0.29 0.28 0.24 0.24 0.33 0.49 0.60 0.64 0.63 0.65 0.74 0.81 0.98 1.11 1.02 0.82 0.73 0.69 0.66 0.52 0.40 0.33 0.25 0.22 0.17
1.48 1.59 1.60 1.53 1.54 1.51 1.37 1.44 1.69 1.56 1.27 1.66 1.79 1.56 0.95 0.54 0.37 0.25 0.23 0.22 0.23 0.30 0.36 0.40 0.48 0.61 0.64 0.67 0.74 0.59 0.71 0.96 1.11 1.08 0.93 0.77 0.65 0.52 0.44 0.40 0.32 0.27 0.22
1.54 1.61 1.52 1.38 1.33 1.35 1.22 1.22 1.42 1.48 1.28 1.32 1.61 1.82 1.33 0.74 0.50 0.31 0.32 0.35 0.41 0.48 0.50 0.53 0.56 0.59 0.64 0.74 0.86 0.91 0.62 0.69 0.97 1.29 1.22 0.93 0.65 0.49 0.43 0.44 0.45 0.37 0.31
1.70 1.61 1.43 1.27 1.11 1.09 1.04 1.02 1.17 1.28 1.29 1.10 1.20 1.29 1.22 1.10 0.96 0.56 0.39 0.43 0.55 0.60 0.61 0.66 0.63 0.61 0.66 0.79 0.92 1.05 0.76 0.61 0.70 1.09 1.29 1.18 0.90 0.63 0.51 0.55 0.75 0.70 0.49
1.65 1.50 1.36 1.23 1.12 1.04 0.97 0.95 0.99 1.03 1.07 0.99 1.01 1.05 1.08 1.06 0.99 0.86 0.59 0.58 0.57 0.46 0.46 0.52 0.63 0.76 0.74 0.82 1.01 1.08 1.01 0.94 0.87 0.85 0.90 0.95 0.94 0.80 0.69 0.75 1.06 1.26 1.08
1.24 1.18 1.09 0.99 0.94 0.94 0.95 0.92 0.89 0.91 0.92 0.94 0.95 0.97 1.05 1.08 1.10 1.10 0.91 0.78 0.68 0.56 0.53 0.52 0.58 0.70 0.75 0.77 0.85 0.96 0.93 0.91 0.86 0.80 0.73 0.71 0.70 0.76 0.86 1.05 1.36 1.65 1.79
0.70 0.67 0.69 0.70 0.71 0.72 0.73 0.75 0.74 0.74 0.82 0.87 0.89 0.96 1.06 1.13 1.19 1.19 1.09 0.89 0.79 0.70 0.74 0.68 0.59 0.65 0.65 0.74 0.77 0.68 0.54 0.54 0.52 0.51 0.51 0.54 0.63 0.72 0.77 0.86 1.11 1.43 1.71
0.50 0.48 0.51 0.54 0.56 0.59 0.61 0.64 0.64 0.64 0.65 0.69 0.73 0.88 0.99 1.00 1.08 1.15 1.14 1.09 1.00 0.95 0.99 0.90 0.70 0.64 0.64 0.67 0.62 0.48 0.43 0.35 0.28 0.24 0.23 0.24 0.30 0.45 0.60 0.75 0.90 1.02 1.17
0.44 0.45 0.49 0.54 0.57 0.60 0.61 0.59 0.60 0.61 0.69 0.74 0.76 0.85 0.93 0.97 1.00 1.06 1.13 1.17 1.19 1.15 1.14 1.06 0.78 0.65 0.60 0.57 0.56 0.47 0.49 0.34 0.18 0.13 0.13 0.13 0.14 0.18 0.28 0.46 0.65 0.80 1.01
0.43 0.46 0.48 0.55 0.58 0.57 0.55 0.54 0.55 0.57 0.66 0.76 0.85 0.96 0.99 0.99 0.99 1.05 1.13 1.27 1.35 1.31 1.17 0.97 0.83 0.78 0.73 0.61 0.52 0.38 0.33 0.27 0.16 0.12 0.11 0.12 0.13 0.15 0.21 0.34 0.49 0.63 0.80
0.41 0.45 0.48 0.51 0.52 0.53 0.53 0.55 0.56 0.61 0.67 0.72 0.76 0.88 0.96 0.98 1.01 1.04 1.10 1.14 1.25 1.35 1.22 1.02 0.97 0.99 0.98 0.89 0.70 0.48 0.31 0.23 0.18 0.14 0.10 0.09 0.11 0.18 0.26 0.33 0.42 0.52 0.59
0.48 0.49 0.51 0.53 0.51 0.54 0.61 0.68 0.67 0.71 0.76 0.77 0.78 0.80 0.80 0.85 0.94 0.96 1.00 1.00 1.07 1.22 1.17 1.07 1.08 1.09 1.07 1.00 0.86 0.65 0.44 0.30 0.25 0.17 0.12 0.10 0.11 0.13 0.17 0.21 0.30 0.44 0.54
0.53 0.54 0.59 0.67 0.69 0.69 0.69 0.74 0.80 0.81 0.75 0.70 0.70 0.69 0.67 0.68 0.73 0.81 0.89 0.87 0.85 0.94 1.03 1.09 1.15 1.19 1.21 1.06 0.88 0.73 0.59 0.49 0.34 0.24 0.17 0.13 0.12 0.14 0.14 0.14 0.20 0.30 0.44
0.44 0.49 0.57 0.68 0.77 0.81 0.84 0.80 0.75 0.73 0.67 0.63 0.58 0.55 0.57 0.60 0.61 0.64 0.73 0.77 0.78 0.83 0.91 0.98 1.09 1.21 1.19 1.17 1.01 0.84 0.75 0.68 0.50 0.34 0.29 0.23 0.20 0.16 0.15 0.13 0.14 0.20 0.31
0.40 0.51 0.62 0.70 0.82 0.88 0.83 0.80 0.72 0.68 0.67 0.59 0.53 0.48 0.46 0.46 0.48 0.53 0.57 0.60 0.65 0.71 0.74 0.81 0.91 1.01 1.07 1.08 0.99 0.83 0.74 0.77 0.67 0.47 0.40 0.39 0.36 0.31 0.28 0.22 0.16 0.14 0.22
0.36 0.43 0.50 0.56 0.59 0.56 0.57 0.55 0.51 0.50 0.51 0.48 0.45 0.44 0.40 0.36 0.39 0.41 0.40 0.45 0.50 0.52 0.59 0.70 0.76 0.85 0.90 0.91 0.93 0.93 0.85 0.74 0.75 0.70 0.61 0.59 0.54 0.50 0.41 0.31 0.23 0.16 0.16
0.31 0.36 0.38 0.41 0.42 0.42 0.35 0.31 0.30 0.31 0.36 0.38 0.39 0.40 0.32 0.28 0.33 0.33 0.31 0.28 0.32 0.35 0.41 0.54 0.64 0.69 0.77 0.81 0.85 0.94 0.93 0.92 0.91 0.88 0.81 0.78 0.65 0.56 0.51 0.43 0.34 0.22 0.16
0.35 0.36 0.36 0.36 0.40 0.38 0.30 0.23 0.21 0.20 0.26 0.29 0.33 0.37 0.36 0.32 0.31 0.30 0.28 0.23 0.21 0.23 0.27 0.33 0.41 0.53 0.69 0.85 0.87 0.85 0.86 0.86 0.92 0.91 0.87 0.94 0.89 0.78 0.72 0.64 0.53 0.35 0.25
0.43 0.41 0.39 0.38 0.40 0.41 0.31 0.21 0.18 0.21 0.27 0.28 0.30 0.32 0.35 0.32 0.32 0.26 0.25 0.26 0.25 0.23 0.23 0.28 0.32 0.42 0.54 0.70 0.87 0.82 0.70 0.58 0.53 0.47 0.43 0.58 0.75 0.82 0.88 0.86 0.75 0.60 0.45
0.51 0.48 0.44 0.45 0.48 0.52 0.44 0.26 0.21 0.24 0.31 0.36 0.40 0.38 0.36 0.34 0.31 0.24 0.24 0.27 0.25 0.24 0.23 0.23 0.25 0.30 0.35 0.44 0.60 0.67 0.58 0.45 0.35 0.29 0.20 0.22 0.32 0.43 0.59 0.68 0.68 0.65 0.59

GEFSMA_prec_meanprecacc_078.txt.gz
Total_Precipitation_Accumulation
0.64 0.63 0.62 0.63 0.61 0.76 1.02 1.22 1.24 1.31 1.39 1.31 1.14 1.02 0.97 0.94 0.90 1.01 0.88 0.94 0.94 0.98 1.28 1.37 1.20 1.02 0.91 0.80 0.70 0.61 0.58 0.58 0.54 0.41 0.35 0.39 0.47 0.53 0.50 0.43 0.39 0.38 0.32
1.01 0.97 0.87 0.88 0.79 0.85 0.99 1.22 1.36 1.62 1.58 1.53 1.21 1.11 1.10 1.12 1.06 1.13 1.13 1.26 1.17 1.08 1.21 1.25 1.23 1.14 1.01 0.90 0.76 0.66 0.58 0.56 0.52 0.39 0.32 0.32 0.39 0.50 0.49 0.50 0.47 0.43 0.36
1.37 1.32 1.13 1.04 1.09 1.16 1.22 1.30 1.42 1.66 1.62 1.48 1.21 1.18 1.15 1.06 0.95 0.95 1.02 1.15 1.13 1.04 1.08 1.09 1.13 1.11 1.06 1.05 0.95 0.85 0.68 0.55 0.48 0.39 0.33 0.27 0.26 0.32 0.34 0.40 0.44 0.45 0.39
1.58 1.51 1.27 1.16 1.39 1.43 1.41 1.49 1.53 1.61 1.69 1.71 1.46 1.29 1.21 1.09 0.91 0.90 0.87 0.90 0.95 0.79 0.86 1.00 1.08 1.07 1.16 1.23 1.23 1.19 0.95 0.69 0.51 0.41 0.34 0.28 0.25 0.25 0.22 0.24 0.31 0.32 0.29
1.58 1.59 1.31 1.21 1.49 1.63 1.59 1.50 1.67 1.86 1.82 1.84 1.61 1.37 1.15 0.98 0.81 0.78 0.79 0.74 0.72 0.70 0.71 0.74 0.82 0.88 1.17 1.43 1.45 1.41 1.28 0.96 0.66 0.52 0.47 0.42 0.36 0.33 0.25 0.20 0.22 0.21 0.19
1.45 1.64 1.36 1.36 1.63 1.68 1.62 1.70 1.83 1.99 1.86 1.90 1.73 1.28 1.01 0.77 0.71 0.59 0.52 0.53 0.49 0.45 0.49 0.60 0.75 0.76 0.99 1.18 1.26 1.33 1.39 1.22 0.92 0.69 0.64 0.59 0.54 0.45 0.33 0.26 0.22 0.22 0.18
1.51 1.77 1.54 1.54 1.61 1.54 1.53 1.72 1.85 1.78 1.65 2.05 1.96 1.26 0.79 0.62 0.53 0.36 0.35 0.35 0.31 0.31 0.41 0.56 0.69 0.76 0.76 0.79 0.90 0.97 1.17 1.29 1.17 0.91 0.79 0.75 0.73 0.57 0.42 0.35 0.27 0.24 0.19
1.50 1.61 1.62 1.54 1.55 1.52 1.38 1.46 1.71 1.60 1.33 1.76 1.92 1.68 1.06 0.63 0.43 0.29 0.28 0.26 0.28 0.37 0.42 0.45 0.55 0.68 0.74 0.78 0.82 0.69 0.83 1.10 1.27 1.21 1.03 0.84 0.70 0.56 0.47 0.42 0.34 0.28 0.23
1.55 1.63 1.53 1.39 1.34 1.36 1.23 1.22 1.42 1.50 1.30 1.37 1.71 1.95 1.45 0.84 0.58 0.36 0.37 0.38 0.45 0.53 0.54 0.58 0.61 0.64 0.70 0.83 0.93 0.98 0.72 0.80 1.11 1.47 1.38 1.04 0.71 0.52 0.47 0.48 0.48 0.39 0.33
1.70 1.61 1.44 1.27 1.11 1.10 1.05 1.02 1.18 1.29 1.31 1.13 1.27 1.38 1.33 1.21 1.06 0.65 0.45 0.48 0.60 0.65 0.66 0.71 0.68 0.65 0.71 0.84 0.98 1.10 0.82 0.67 0.79 1.25 1.46 1.33 1.00 0.68 0.55 0.60 0.81 0.76 0.52
1.66 1.50 1.36 1.23 1.12 1.04 0.97 0.95 0.99 1.03 1.08 1.00 1.05 1.12 1.18 1.17 1.08 0.95 0.67 0.65 0.64 0.51 0.51 0.57 0.67 0.80 0.79 0.87 1.06 1.12 1.06 0.99 0.93 0.94 1.02 1.08 1.05 0.87 0.73 0.79 1.13 1.35 1.14
1.24 1.18 1.10 0.99 0.94 0.94 0.95 0.93 0.90 0.92 0.94 0.96 0.98 1.01 1.11 1.18 1.20 1.20 1.00 0.84 0.74 0.61 0.57 0.57 0.62 0.74 0.79 0.82 0.89 1.01 0.99 0.97 0.90 0.85 0.80 0.78 0.78 0.84 0.92 1.10 1.42 1.72 1.86
0.70 0.67 0.69 0.70 0.71 0.72 0.73 0.75 0.74 0.75 0.83 0.89 0.91 0.99 1.10 1.18 1.26 1.28 1.18 0.96 0.84 0.75 0.79 0.72 0.63 0.70 0.69 0.79 0.82 0.74 0.60 0.61 0.57 0.56 0.56 0.59 0.68 0.77 0.82 0.91 1.16 1.49 1.77
0.50 0.48 0.51 0.54 0.56 0.59 0.61 0.64 0.64 0.64 0.65 0.70 0.74 0.89 1.02 1.05 1.15 1.23 1.23 1.17 1.08 1.01 1.04 0.95 0.76 0.71 0.71 0.72 0.68 0.56 0.49 0.42 0.34 0.29 0.27 0.27 0.32 0.47 0.63 0.78 0.92 1.04 1.21
0.44 0.45 0.49 0.54 0.57 0.60 0.61 0.60 0.60 0.61 0.69 0.74 0.77 0.86 0.94 0.99 1.06 1.15 1.23 1.27 1.29 1.24 1.21 1.11 0.85 0.74 0.67 0.64 0.64 0.55 0.56 0.40 0.23 0.17 0.16 0.16 0.16 0.19 0.29 0.47 0.66 0.81 1.02
0.43 0.46 0.48 0.55 0.58 0.57 0.55 0.54 0.55 0.58 0.66 0.76 0.85 0.96 0.99 1.00 1.01 1.10 1.22 1.37 1.46 1.42 1.28 1.05 0.91 0.89 0.82 0.69 0.60 0.46 0.41 0.34 0.22 0.16 0.15 0.14 0.14 0.16 0.22 0.35 0.50 0.64 0.80
0.41 0.45 0.48 0.51 0.52 0.53 0.53 0.55 0.56 0.61 0.67 0.72 0.76 0.88 0.96 0.98 1.01 1.06 1.15 1.23 1.36 1.47 1.33 1.13 1.08 1.11 1.10 0.99 0.79 0.58 0.40 0.31 0.23 0.17 0.13 0.11 0.12 0.19 0.27 0.34 0.44 0.52 0.60
0.48 0.49 0.51 0.53 0.51 0.54 0.61 0.68 0.67 0.71 0.76 0.77 0.78 0.80 0.80 0.85 0.95 0.97 1.03 1.07 1.17 1.34 1.28 1.19 1.21 1.24 1.23 1.14 0.97 0.75 0.53 0.37 0.30 0.20 0.14 0.11 0.11 0.14 0.18 0.22 0.31 0.45 0.55
0.53 0.54 0.59 0.67 0.69 0.69 0.69 0.74 0.80 0.81 0.75 0.70 0.70 0.69 0.67 0.68 0.73 0.82 0.91 0.91 0.93 1.05 1.15 1.21 1.29 1.34 1.40 1.26 1.04 0.85 0.68 0.55 0.38 0.26 0.18 0.14 0.13 0.14 0.14 0.15 0.20 0.30 0.44
0.44 0.49 0.57 0.68 0.77 0.81 0.84 0.80 0.75 0.73 0.67 0.63 0.58 0.55 0.57 0.60 0.61 0.64 0.74 0.78 0.81 0.90 1.01 1.10 1.26 1.40 1.39 1.39 1.24 1.02 0.87 0.76 0.55 0.37 0.30 0.24 0.21 0.17 0.15 0.13 0.14 0.20 0.32
0.40 0.51 0.62 0.70 0.82 0.88 0.83 0.80 0.72 0.68 0.67 0.59 0.53 0.48 0.47 0.46 0.48 0.54 0.57 0.61 0.66 0.75 0.81 0.89 1.04 1.23 1.30 1.33 1.24 1.06 0.92 0.89 0.75 0.50 0.42 0.40 0.37 0.31 0.28 0.23 0.16 0.15 0.22
0.36 0.43 0.50 0.56 0.59 0.56 0.58 0.55 0.52 0.50 0.51 0.48 0.45 0.44 0.40 0.37 0.40 0.42 0.40 0.46 0.51 0.55 0.64 0.76 0.84 1.00 1.13 1.16 1.20 1.23 1.09 0.91 0.85 0.74 0.62 0.60 0.55 0.50 0.41 0.32 0.24 0.16 0.16
0.31 0.36 0.38 0.41 0.42 0.42 0.35 0.31 0.30 0.31 0.36 0.38 0.39 0.40 0.33 0.29 0.34 0.35 0.32 0.30 0.33 0.37 0.44 0.58 0.69 0.78 0.94 1.05 1.12 1.25 1.24 1.16 1.04 0.95 0.85 0.80 0.65 0.57 0.51 0.44 0.35 0.22 0.17
0.35 0.36 0.36 0.36 0.40 0.38 0.30 0.23 0.21 0.20 0.26 0.29 0.34 0.37 0.36 0.32 0.32 0.33 0.31 0.26 0.22 0.25 0.29 0.36 0.45 0.59 0.80 1.05 1.13 1.13 1.21 1.25 1.20 1.07 0.95 0.97 0.90 0.79 0.73 0.64 0.54 0.36 0.25
0.43 0.41 0.39 0.38 0.40 0.41 0.32 0.22 0.19 0.21 0.28 0.29 0.30 0.33 0.35 0.33 0.34 0.28 0.28 0.28 0.27 0.25 0.25 0.31 0.36 0.47 0.63 0.85 1.12 1.12 1.03 0.97 0.93 0.74 0.57 0.62 0.77 0.83 0.89 0.87 0.75 0.61 0.45
0.51 0.48 0.44 0.45 0.48 0.52 0.44 0.26 0.21 0.25 0.32 0.37 0.41 0.40 0.37 0.36 0.34 0.28 0.28 0.31 0.28 0.26 0.25 0.25 0.28 0.35 0.42 0.55 0.79 0.92 0.83 0.69 0.61 0.56 0.39 0.31 0.37 0.45 0.61 0.69 0.69 0.66 0.59

GEFSMA_prec_meanprecacc_084.txt.gz
Total_Precipitation_Accumulation
0.82 0.81 0.79 0.77 0.75 0.91 1.18 1.38 1.42 1.50 1.57 1.47 1.25 1.10 1.05 1.00 0.94 1.05 0.91 0.97 0.98 1.04 1.36 1.47 1.35 1.20 1.09 0.93 0.78 0.66 0.61 0.60 0.55 0.43 0.37 0.40 0.49 0.55 0.51 0.44 0.40 0.38 0.32
1.22 1.17 1.04 1.05 1.00 1.09 1.20 1.40 1.53 1.79 1.75 1.69 1.34 1.21 1.19 1.21 1.12 1.18 1.17 1.30 1.20 1.13 1.27 1.33 1.34 1.29 1.18 1.06 0.91 0.77 0.65 0.60 0.55 0.40 0.34 0.34 0.41 0.51 0.51 0.51 0.47 0.43 0.37
1.51 1.47 1.28 1.18 1.25 1.34 1.38 1.43 1.53 1.77 1.72 1.60 1.32 1.30 1.26 1.16 1.03 1.01 1.07 1.21 1.19 1.09 1.13 1.16 1.22 1.23 1.20 1.20 1.12 1.02 0.82 0.64 0.54 0.42 0.35 0.29 0.27 0.33 0.36 0.41 0.45 0.45 0.40
1.67 1.61 1.38 1.25 1.48 1.51 1.50 1.58 1.63 1.71 1.79 1.80 1.55 1.38 1.29 1.17 0.99 0.99 0.95 0.96 1.02 0.84 0.92 1.07 1.16 1.17 1.30 1.39 1.43 1.41 1.15 0.83 0.60 0.48 0.39 0.31 0.26 0.26 0.24 0.25 0.32 0.33 0.29
1.62 1.65 1.39 1.28 1.54 1.68 1.65 1.55 1.74 1.93 1.89 1.90 1.67 1.43 1.22 1.05 0.89 0.86 0.87 0.81 0.80 0.77 0.78 0.80 0.89 0.97 1.28 1.59 1.66 1.65 1.51 1.14 0.80 0.62 0.54 0.46 0.38 0.35 0.27 0.21 0.22 0.21 0.20
1.48 1.67 1.41 1.39 1.65 1.70 1.65 1.73 1.86 2.03 1.91 1.95 1.78 1.32 1.05 0.82 0.79 0.67 0.59 0.60 0.54 0.50 0.54 0.66 0.84 0.84 1.07 1.30 1.40 1.51 1.60 1.46 1.12 0.83 0.72 0.65 0.59 0.48 0.36 0.28 0.23 0.22 0.18
1.53 1.80 1.57 1.57 1.63 1.56 1.55 1.74 1.87 1.80 1.68 2.09 2.01 1.30 0.83 0.65 0.56 0.41 0.41 0.40 0.35 0.35 0.45 0.63 0.78 0.86 0.85 0.87 0.99 1.10 1.34 1.50 1.39 1.10 0.93 0.84 0.78 0.59 0.44 0.37 0.29 0.25 0.20
1.51 1.63 1.64 1.57 1.57 1.53 1.39 1.48 1.73 1.62 1.35 1.79 1.95 1.72 1.11 0.68 0.47 0.32 0.32 0.30 0.32 0.42 0.46 0.48 0.60 0.78 0.82 0.88 0.90 0.78 0.96 1.28 1.46 1.40 1.19 0.96 0.78 0.60 0.49 0.44 0.35 0.29 0.24
1.56 1.64 1.54 1.40 1.36 1.37 1.24 1.24 1.45 1.52 1.32 1.39 1.74 1.99 1.51 0.90 0.64 0.41 0.41 0.43 0.50 0.58 0.59 0.62 0.66 0.70 0.78 0.92 1.03 1.07 0.83 0.94 1.29 1.67 1.59 1.21 0.81 0.58 0.49 0.49 0.49 0.40 0.33
1.70 1.62 1.45 1.28 1.13 1.11 1.06 1.04 1.20 1.31 1.32 1.14 1.28 1.41 1.37 1.27 1.13 0.72 0.52 0.54 0.67 0.72 0.72 0.76 0.73 0.73 0.81 0.97 1.10 1.19 0.90 0.76 0.90 1.42 1.68 1.55 1.17 0.78 0.59 0.62 0.83 0.77 0.53
1.67 1.51 1.37 1.24 1.13 1.05 0.98 0.97 1.01 1.05 1.09 1.01 1.06 1.13 1.20 1.20 1.14 1.03 0.75 0.73 0.72 0.58 0.59 0.64 0.74 0.88 0.90 1.01 1.21 1.22 1.14 1.08 1.01 1.03 1.15 1.25 1.23 1.03 0.83 0.85 1.18 1.39 1.17
1.25 1.19 1.10 1.00 0.95 0.95 0.96 0.94 0.92 0.94 0.95 0.97 0.99 1.02 1.13 1.20 1.24 1.25 1.07 0.93 0.83 0.68 0.65 0.65 0.70 0.84 0.90 0.94 1.00 1.09 1.07 1.05 0.97 0.91 0.88 0.87 0.91 0.98 1.04 1.18 1.49 1.79 1.90
0.70 0.68 0.69 0.71 0.72 0.73 0.74 0.76 0.75 0.77 0.85 0.91 0.93 1.01 1.11 1.20 1.29 1.31 1.22 1.02 0.92 0.83 0.87 0.81 0.72 0.80 0.79 0.91 0.96 0.86 0.71 0.70 0.64 0.63 0.65 0.68 0.77 0.86 0.91 0.99 1.23 1.56 1.83
0.50 0.49 0.52 0.55 0.56 0.60 0.61 0.64 0.65 0.64 0.67 0.72 0.76 0.91 1.04 1.06 1.17 1.26 1.26 1.21 1.12 1.07 1.13 1.04 0.88 0.83 0.84 0.87 0.83 0.72 0.66 0.55 0.44 0.37 0.36 0.35 0.39 0.53 0.68 0.83 0.98 1.10 1.26
0.44 0.45 0.49 0.54 0.57 0.61 0.62 0.60 0.60 0.62 0.70 0.75 0.78 0.87 0.96 1.01 1.08 1.17 1.26 1.30 1.34 1.30 1.28 1.21 0.97 0.88 0.83 0.79 0.80 0.71 0.74 0.55 0.34 0.27 0.26 0.26 0.25 0.25 0.33 0.50 0.69 0.84 1.05
0.43 0.46 0.49 0.55 0.58 0.58 0.55 0.54 0.55 0.58 0.67 0.77 0.86 0.97 1.00 1.01 1.03 1.12 1.25 1.41 1.50 1.47 1.35 1.13 0.99 0.99 0.95 0.84 0.77 0.63 0.56 0.51 0.36 0.26 0.24 0.25 0.24 0.24 0.26 0.38 0.52 0.66 0.82
0.41 0.45 0.48 0.51 0.52 0.53 0.53 0.56 0.56 0.62 0.68 0.73 0.77 0.89 0.97 0.99 1.03 1.08 1.17 1.26 1.40 1.52 1.39 1.20 1.15 1.19 1.20 1.12 0.93 0.73 0.55 0.46 0.38 0.30 0.23 0.21 0.21 0.26 0.32 0.37 0.46 0.55 0.62
0.48 0.49 0.52 0.53 0.51 0.54 0.62 0.68 0.68 0.72 0.77 0.78 0.79 0.81 0.81 0.86 0.96 0.98 1.05 1.09 1.19 1.39 1.35 1.27 1.31 1.34 1.35 1.26 1.11 0.92 0.70 0.55 0.46 0.35 0.25 0.21 0.20 0.21 0.24 0.26 0.34 0.47 0.57
0.53 0.54 0.60 0.67 0.69 0.69 0.69 0.75 0.80 0.82 0.75 0.71 0.71 0.70 0.68 0.70 0.75 0.83 0.93 0.92 0.94 1.07 1.21 1.29 1.41 1.47 1.54 1.41 1.19 1.01 0.86 0.74 0.54 0.40 0.31 0.24 0.22 0.21 0.20 0.20 0.24 0.32 0.46
0.44 0.50 0.58 0.68 0.77 0.82 0.84 0.80 0.75 0.73 0.68 0.64 0.59 0.56 0.58 0.61 0.63 0.67 0.76 0.81 0.84 0.92 1.05 1.16 1.35 1.55 1.56 1.59 1.43 1.19 1.06 0.96 0.73 0.50 0.41 0.33 0.28 0.24 0.21 0.18 0.18 0.22 0.33
0.41 0.52 0.62 0.70 0.82 0.89 0.84 0.80 0.72 0.69 0.68 0.61 0.54 0.49 0.48 0.47 0.49 0.55 0.58 0.63 0.70 0.79 0.84 0.94 1.11 1.35 1.48 1.56 1.49 1.28 1.12 1.10 0.96 0.67 0.53 0.47 0.43 0.36 0.32 0.26 0.19 0.16 0.24
0.36 0.43 0.50 0.57 0.60 0.56 0.58 0.55 0.52 0.51 0.52 0.50 0.47 0.46 0.41 0.38 0.41 0.42 0.40 0.46 0.53 0.58 0.67 0.80 0.89 1.09 1.27 1.36 1.44 1.49 1.33 1.14 1.08 0.93 0.77 0.71 0.62 0.55 0.44 0.33 0.25 0.18 0.17
0.31 0.36 0.38 0.42 0.43 0.43 0.35 0.31 0.30 0.32 0.37 0.40 0.41 0.42 0.34 0.29 0.35 0.37 0.34 0.31 0.34 0.38 0.46 0.62 0.74 0.84 1.04 1.22 1.36 1.51 1.47 1.36 1.25 1.15 1.02 0.97 0.76 0.62 0.54 0.45 0.36 0.23 0.18
0.35 0.37 0.36 0.36 0.41 0.38 0.30 0.23 0.21 0.21 0.27 0.30 0.35 0.39 0.38 0.34 0.34 0.35 0.34 0.29 0.26 0.27 0.31 0.38 0.49 0.65 0.89 1.20 1.35 1.42 1.49 1.52 1.48 1.35 1.19 1.18 1.06 0.87 0.76 0.66 0.55 0.37 0.26
0.43 0.41 0.39 0.38 0.40 0.41 0.32 0.22 0.19 0.21 0.28 0.30 0.32 0.35 0.38 0.36 0.36 0.29 0.31 0.32 0.32 0.31 0.28 0.33 0.40 0.51 0.70 0.96 1.31 1.40 1.38 1.28 1.27 1.08 0.84 0.84 0.93 0.95 0.97 0.90 0.77 0.62 0.46
0.52 0.48 0.44 0.46 0.49 0.53 0.45 0.27 0.21 0.25 0.32 0.38 0.44 0.42 0.39 0.37 0.35 0.29 0.31 0.35 0.33 0.31 0.31 0.31 0.33 0.38 0.46 0.63 0.92 1.13 1.12 0.99 0.88 0.87 0.64 0.52 0.55 0.59 0.72 0.76 0.71 0.67 0.60

GEFSMA_prec_meanprecacc_090.txt.gz
Total_Precipitation_Accumulation
1.06 1.14 1.10 1.04 0.96 1.09 1.34 1.57 1.58 1.67 1.71 1.59 1.33 1.18 1.13 1.05 0.97 1.08 1.02 1.15 1.09 1.09 1.39 1.50 1.37 1.24 1.15 0.99 0.84 0.70 0.65 0.63 0.58 0.45 0.38 0.42 0.51 0.57 0.52 0.45 0.40 0.38 0.32
1.43 1.38 1.23 1.25 1.19 1.27 1.38 1.58 1.70 1.98 1.91 1.83 1.43 1.29 1.28 1.30 1.18 1.24 1.26 1.43 1.30 1.17 1.30 1.35 1.37 1.32 1.22 1.12 0.97 0.82 0.69 0.64 0.58 0.43 0.36 0.35 0.42 0.53 0.52 0.52 0.47 0.43 0.37
1.69 1.65 1.45 1.36 1.42 1.49 1.55 1.59 1.71 1.97 1.89 1.75 1.46 1.40 1.36 1.26 1.10 1.09 1.15 1.30 1.29 1.18 1.18 1.20 1.26 1.26 1.24 1.25 1.19 1.09 0.87 0.69 0.58 0.46 0.37 0.30 0.28 0.34 0.37 0.41 0.45 0.46 0.40
1.77 1.73 1.52 1.37 1.59 1.60 1.61 1.70 1.78 1.88 1.95 1.95 1.68 1.48 1.40 1.28 1.07 1.07 1.05 1.06 1.11 0.92 1.02 1.15 1.22 1.22 1.34 1.43 1.49 1.49 1.21 0.88 0.64 0.52 0.42 0.33 0.27 0.27 0.24 0.25 0.32 0.33 0.29
1.69 1.73 1.47 1.36 1.61 1.74 1.72 1.61 1.82 2.02 2.00 2.01 1.76 1.52 1.30 1.14 0.97 0.92 0.94 0.88 0.88 0.84 0.86 0.92 0.98 1.03 1.32 1.63 1.72 1.73 1.57 1.20 0.85 0.67 0.58 0.49 0.41 0.36 0.27 0.22 0.23 0.22 0.20
1.50 1.70 1.44 1.43 1.68 1.72 1.68 1.76 1.90 2.07 1.95 1.99 1.82 1.38 1.12 0.88 0.85 0.74 0.65 0.67 0.60 0.55 0.58 0.76 1.00 0.91 1.12 1.34 1.47 1.59 1.68 1.54 1.18 0.88 0.77 0.70 0.62 0.50 0.37 0.28 0.24 0.23 0.19
1.54 1.81 1.59 1.59 1.65 1.57 1.57 1.76 1.90 1.82 1.70 2.11 2.05 1.34 0.86 0.68 0.59 0.44 0.45 0.45 0.39 0.39 0.51 0.73 0.90 0.96 0.92 0.92 1.03 1.15 1.40 1.58 1.47 1.17 0.99 0.90 0.83 0.62 0.45 0.37 0.29 0.25 0.20
1.52 1.64 1.66 1.59 1.60 1.57 1.43 1.52 1.77 1.65 1.37 1.82 1.98 1.76 1.13 0.71 0.49 0.34 0.35 0.34 0.35 0.47 0.51 0.54 0.70 0.89 0.90 0.98 0.95 0.82 1.02 1.35 1.53 1.47 1.26 1.03 0.83 0.64 0.52 0.45 0.36 0.30 0.24
1.56 1.65 1.56 1.42 1.39 1.41 1.28 1.29 1.50 1.56 1.35 1.42 1.77 2.02 1.54 0.92 0.67 0.45 0.45 0.47 0.56 0.66 0.65 0.69 0.73 0.80 0.86 1.02 1.13 1.12 0.89 1.00 1.37 1.75 1.67 1.29 0.87 0.62 0.53 0.52 0.51 0.40 0.34
1.71 1.63 1.47 1.31 1.16 1.13 1.09 1.07 1.23 1.35 1.36 1.17 1.31 1.45 1.40 1.30 1.16 0.75 0.54 0.58 0.72 0.78 0.80 0.84 0.83 0.86 0.92 1.09 1.21 1.27 0.98 0.83 0.97 1.51 1.77 1.64 1.25 0.83 0.63 0.67 0.87 0.79 0.54
1.68 1.52 1.40 1.28 1.17 1.08 1.01 0.99 1.04 1.08 1.12 1.04 1.09 1.16 1.23 1.23 1.17 1.06 0.78 0.76 0.77 0.64 0.65 0.70 0.81 1.04 1.08 1.16 1.33 1.31 1.23 1.15 1.08 1.11 1.25 1.35 1.34 1.10 0.89 0.91 1.25 1.43 1.19
1.25 1.19 1.12 1.03 0.98 0.98 0.99 0.97 0.95 0.96 0.98 1.00 1.01 1.04 1.15 1.23 1.27 1.28 1.10 0.96 0.87 0.72 0.69 0.71 0.77 0.92 1.01 1.05 1.10 1.19 1.19 1.14 1.04 0.98 0.96 0.97 1.01 1.07 1.12 1.25 1.57 1.87 1.96
0.70 0.68 0.70 0.72 0.74 0.75 0.75 0.78 0.77 0.78 0.87 0.94 0.96 1.03 1.13 1.22 1.30 1.33 1.24 1.04 0.95 0.85 0.90 0.86 0.78 0.87 0.89 1.02 1.07 0.97 0.83 0.81 0.71 0.69 0.72 0.77 0.86 0.94 0.98 1.07 1.31 1.63 1.90
0.50 0.49 0.52 0.55 0.57 0.60 0.62 0.65 0.66 0.66 0.68 0.74 0.78 0.95 1.07 1.08 1.18 1.27 1.28 1.23 1.14 1.09 1.16 1.09 0.93 0.89 0.92 0.99 0.96 0.83 0.77 0.65 0.51 0.43 0.42 0.44 0.50 0.64 0.77 0.90 1.05 1.17 1.33
0.44 0.45 0.49 0.54 0.57 0.61 0.62 0.61 0.62 0.63 0.71 0.77 0.79 0.89 0.99 1.03 1.10 1.18 1.27 1.32 1.36 1.32 1.30 1.24 1.03 0.97 0.92 0.89 0.91 0.82 0.87 0.67 0.42 0.34 0.34 0.34 0.33 0.35 0.43 0.58 0.75 0.90 1.10
0.43 0.47 0.49 0.55 0.59 0.59 0.57 0.56 0.56 0.59 0.69 0.79 0.88 0.99 1.03 1.03 1.05 1.14 1.27 1.43 1.53 1.50 1.36 1.14 1.03 1.06 1.08 0.96 0.89 0.74 0.69 0.66 0.47 0.35 0.32 0.32 0.32 0.32 0.35 0.47 0.60 0.73 0.87
0.42 0.45 0.49 0.52 0.53 0.54 0.55 0.58 0.58 0.63 0.69 0.74 0.79 0.91 0.99 1.02 1.06 1.10 1.20 1.28 1.43 1.55 1.42 1.22 1.16 1.22 1.27 1.24 1.06 0.86 0.69 0.62 0.52 0.41 0.32 0.30 0.30 0.34 0.40 0.45 0.53 0.61 0.68
0.49 0.50 0.53 0.54 0.52 0.55 0.63 0.70 0.69 0.73 0.79 0.80 0.81 0.84 0.83 0.88 0.99 1.01 1.07 1.11 1.22 1.42 1.38 1.29 1.33 1.36 1.38 1.32 1.23 1.03 0.83 0.71 0.65 0.49 0.36 0.31 0.29 0.31 0.34 0.34 0.41 0.53 0.63
0.54 0.55 0.61 0.68 0.70 0.70 0.71 0.76 0.82 0.84 0.77 0.73 0.73 0.73 0.70 0.72 0.78 0.86 0.96 0.95 0.97 1.10 1.24 1.31 1.42 1.49 1.56 1.45 1.26 1.11 0.97 0.87 0.69 0.58 0.47 0.37 0.33 0.31 0.31 0.30 0.33 0.41 0.53
0.44 0.50 0.58 0.69 0.78 0.83 0.85 0.82 0.77 0.76 0.71 0.66 0.62 0.59 0.61 0.64 0.66 0.70 0.80 0.85 0.87 0.96 1.09 1.20 1.37 1.58 1.59 1.64 1.50 1.27 1.16 1.09 0.85 0.62 0.56 0.49 0.42 0.37 0.33 0.29 0.28 0.32 0.42
0.41 0.52 0.63 0.71 0.83 0.90 0.85 0.82 0.74 0.71 0.70 0.63 0.56 0.52 0.50 0.49 0.51 0.57 0.60 0.66 0.74 0.84 0.89 0.98 1.14 1.38 1.52 1.61 1.57 1.37 1.23 1.23 1.10 0.81 0.67 0.62 0.57 0.49 0.44 0.38 0.30 0.27 0.32
0.37 0.45 0.52 0.58 0.62 0.58 0.58 0.55 0.52 0.51 0.53 0.51 0.48 0.48 0.44 0.39 0.41 0.43 0.40 0.46 0.54 0.60 0.71 0.85 0.93 1.13 1.33 1.41 1.52 1.60 1.47 1.31 1.25 1.10 0.98 0.92 0.79 0.71 0.57 0.44 0.35 0.26 0.25
0.32 0.38 0.40 0.44 0.45 0.46 0.36 0.31 0.30 0.32 0.37 0.40 0.42 0.44 0.35 0.30 0.36 0.39 0.36 0.32 0.35 0.38 0.46 0.64 0.77 0.88 1.10 1.29 1.45 1.62 1.60 1.52 1.43 1.35 1.24 1.22 1.03 0.87 0.72 0.59 0.48 0.33 0.26
0.37 0.39 0.38 0.39 0.44 0.41 0.31 0.23 0.21 0.21 0.27 0.31 0.36 0.42 0.42 0.38 0.37 0.40 0.39 0.35 0.31 0.31 0.33 0.39 0.50 0.67 0.92 1.28 1.46 1.52 1.65 1.69 1.66 1.58 1.46 1.43 1.29 1.11 0.97 0.83 0.70 0.49 0.35
0.44 0.43 0.41 0.41 0.44 0.46 0.35 0.22 0.19 0.22 0.30 0.32 0.35 0.39 0.43 0.42 0.41 0.31 0.33 0.36 0.36 0.35 0.30 0.34 0.40 0.52 0.71 0.98 1.36 1.49 1.52 1.46 1.43 1.27 1.09 1.08 1.14 1.15 1.13 1.04 0.90 0.74 0.55
0.53 0.49 0.46 0.49 0.53 0.58 0.51 0.28 0.22 0.26 0.34 0.41 0.49 0.49 0.43 0.40 0.37 0.30 0.33 0.39 0.37 0.35 0.36 0.36 0.37 0.41 0.47 0.64 0.93 1.17 1.21 1.15 1.06 1.06 0.85 0.73 0.74 0.77 0.91 0.91 0.81 0.74 0.66

GEFSMA_prec_meanprecacc_096.txt.gz
Total_Precipitation_Accumulation
1.11 1.17 1.15 1.21 1.17 1.27 1.50 1.72 1.70 1.75 1.79 1.66 1.43 1.31 1.30 1.24 1.12 1.25 1.27 1.47 1.36 1.30 1.59 1.65 1.47 1.31 1.20 1.03 0.86 0.73 0.65 0.64 0.58 0.45 0.38 0.42 0.51 0.58 0.53 0.45 0.40 0.38 0.33
1.48 1.41 1.26 1.31 1.28 1.37 1.47 1.66 1.76 2.02 1.96 1.89 1.49 1.35 1.39 1.44 1.37 1.47 1.50 1.69 1.55 1.35 1.45 1.50 1.49 1.42 1.31 1.19 1.02 0.86 0.71 0.65 0.59 0.43 0.36 0.35 0.42 0.53 0.53 0.52 0.47 0.43 0.37
1.71 1.66 1.47 1.38 1.45 1.53 1.60 1.65 1.75 2.00 1.93 1.81 1.52 1.44 1.43 1.34 1.19 1.23 1.34 1.46 1.41 1.30 1.31 1.35 1.40 1.37 1.33 1.33 1.25 1.13 0.91 0.71 0.59 0.46 0.38 0.30 0.28 0.34 0.37 0.41 0.45 0.46 0.40
1.77 1.74 1.53 1.39 1.61 1.63 1.66 1.76 1.82 1.93 1.99 2.00 1.73 1.51 1.43 1.32 1.13 1.14 1.15 1.17 1.20 0.99 1.11 1.28 1.37 1.36 1.47 1.53 1.57 1.55 1.26 0.92 0.67 0.53 0.43 0.33 0.27 0.27 0.24 0.25 0.32 0.33 0.29
1.69 1.73 1.47 1.36 1.62 1.76 1.74 1.64 1.84 2.04 2.01 2.03 1.78 1.54 1.33 1.16 0.99 0.97 1.01 0.94 0.94 0.91 0.92 0.99 1.09 1.16 1.46 1.76 1.85 1.84 1.67 1.27 0.89 0.69 0.60 0.50 0.41 0.36 0.27 0.22 0.23 0.22 0.20
1.51 1.71 1.44 1.44 1.68 1.73 1.69 1.78 1.91 2.08 1.96 2.01 1.84 1.39 1.14 0.89 0.85 0.76 0.69 0.71 0.65 0.60 0.63 0.81 1.06 0.99 1.25 1.49 1.62 1.74 1.84 1.67 1.26 0.93 0.80 0.72 0.63 0.51 0.37 0.28 0.24 0.23 0.19
1.55 1.82 1.59 1.60 1.66 1.58 1.58 1.78 1.91 1.84 1.71 2.13 2.06 1.35 0.86 0.69 0.60 0.45 0.47 0.47 0.42 0.44 0.56 0.78 0.96 1.02 0.99 1.05 1.17 1.29 1.56 1.73 1.60 1.26 1.05 0.93 0.85 0.64 0.45 0.37 0.30 0.25 0.20
1.54 1.65 1.67 1.60 1.61 1.58 1.44 1.53 1.78 1.66 1.38 1.84 2.00 1.77 1.14 0.71 0.50 0.35 0.36 0.36 0.39 0.51 0.57 0.61 0.80 0.98 0.98 1.06 1.03 0.93 1.16 1.51 1.70 1.62 1.37 1.11 0.88 0.67 0.53 0.46 0.36 0.30 0.24
1.57 1.66 1.57 1.43 1.40 1.42 1.29 1.30 1.50 1.57 1.36 1.43 1.79 2.04 1.54 0.92 0.67 0.45 0.46 0.49 0.60 0.71 0.70 0.74 0.82 0.92 0.99 1.13 1.21 1.21 1.01 1.12 1.51 1.92 1.83 1.41 0.96 0.67 0.56 0.54 0.52 0.41 0.34
1.72 1.63 1.47 1.31 1.16 1.14 1.10 1.07 1.24 1.36 1.37 1.17 1.32 1.46 1.41 1.31 1.17 0.75 0.55 0.59 0.74 0.81 0.83 0.87 0.88 0.94 1.02 1.20 1.33 1.36 1.08 0.93 1.08 1.65 1.94 1.79 1.36 0.91 0.69 0.71 0.92 0.83 0.55
1.68 1.52 1.40 1.28 1.17 1.08 1.01 0.99 1.04 1.08 1.12 1.04 1.09 1.16 1.23 1.24 1.18 1.07 0.79 0.77 0.78 0.65 0.66 0.72 0.85 1.08 1.16 1.26 1.44 1.41 1.32 1.25 1.18 1.23 1.38 1.50 1.49 1.22 0.97 0.98 1.33 1.50 1.23
1.25 1.20 1.12 1.03 0.99 0.98 0.99 0.97 0.95 0.96 0.98 1.00 1.01 1.04 1.15 1.23 1.27 1.28 1.10 0.96 0.87 0.73 0.70 0.72 0.79 0.95 1.05 1.11 1.18 1.28 1.28 1.24 1.13 1.08 1.08 1.10 1.16 1.22 1.24 1.36 1.67 1.95 2.03
0.71 0.68 0.70 0.72 0.74 0.75 0.75 0.78 0.77 0.78 0.87 0.94 0.97 1.03 1.13 1.22 1.30 1.34 1.25 1.05 0.95 0.85 0.90 0.86 0.79 0.88 0.91 1.06 1.13 1.05 0.92 0.91 0.80 0.76 0.81 0.87 0.98 1.07 1.10 1.18 1.44 1.76 2.02
0.50 0.49 0.52 0.55 0.57 0.60 0.62 0.65 0.66 0.66 0.68 0.74 0.78 0.95 1.07 1.08 1.18 1.28 1.28 1.24 1.15 1.09 1.16 1.09 0.94 0.90 0.93 1.02 1.01 0.91 0.84 0.72 0.58 0.50 0.49 0.52 0.59 0.74 0.87 0.99 1.14 1.27 1.44
0.44 0.45 0.49 0.54 0.57 0.61 0.62 0.61 0.62 0.63 0.72 0.77 0.79 0.89 0.99 1.03 1.10 1.18 1.28 1.33 1.37 1.33 1.30 1.24 1.04 0.98 0.94 0.92 0.97 0.89 0.93 0.74 0.49 0.40 0.38 0.39 0.39 0.42 0.51 0.67 0.82 0.95 1.16
0.43 0.47 0.49 0.55 0.59 0.59 0.57 0.56 0.56 0.59 0.69 0.79 0.88 0.99 1.03 1.03 1.05 1.14 1.27 1.44 1.53 1.51 1.37 1.14 1.03 1.07 1.09 0.99 0.93 0.80 0.75 0.72 0.53 0.41 0.37 0.37 0.36 0.37 0.41 0.54 0.67 0.78 0.92
0.42 0.45 0.49 0.52 0.53 0.54 0.55 0.58 0.58 0.63 0.70 0.75 0.79 0.91 0.99 1.02 1.06 1.11 1.20 1.29 1.44 1.56 1.43 1.22 1.16 1.22 1.28 1.25 1.08 0.90 0.75 0.68 0.58 0.46 0.37 0.35 0.34 0.38 0.44 0.50 0.60 0.69 0.75
0.49 0.50 0.53 0.54 0.52 0.55 0.63 0.70 0.69 0.74 0.79 0.80 0.81 0.84 0.83 0.88 0.99 1.01 1.07 1.12 1.23 1.42 1.38 1.29 1.33 1.36 1.39 1.33 1.24 1.06 0.87 0.76 0.71 0.54 0.41 0.35 0.34 0.35 0.37 0.38 0.45 0.59 0.69
0.54 0.55 0.61 0.68 0.71 0.71 0.71 0.76 0.82 0.84 0.78 0.73 0.73 0.73 0.71 0.73 0.78 0.86 0.96 0.95 0.97 1.10 1.24 1.32 1.43 1.50 1.57 1.46 1.28 1.14 1.02 0.92 0.74 0.63 0.52 0.42 0.37 0.35 0.35 0.34 0.37 0.46 0.58
0.45 0.50 0.59 0.69 0.78 0.83 0.86 0.82 0.78 0.76 0.71 0.67 0.62 0.59 0.61 0.64 0.66 0.70 0.80 0.85 0.87 0.96 1.10 1.20 1.38 1.58 1.60 1.64 1.52 1.30 1.20 1.14 0.90 0.66 0.61 0.54 0.47 0.41 0.37 0.33 0.32 0.37 0.47
0.41 0.52 0.63 0.71 0.84 0.90 0.85 0.82 0.75 0.71 0.70 0.63 0.56 0.52 0.50 0.49 0.51 0.57 0.60 0.66 0.74 0.84 0.89 0.98 1.14 1.39 1.53 1.62 1.58 1.40 1.26 1.27 1.15 0.86 0.71 0.65 0.61 0.53 0.47 0.41 0.33 0.31 0.37
0.37 0.45 0.52 0.58 0.62 0.58 0.58 0.55 0.52 0.51 0.53 0.51 0.48 0.48 0.44 0.39 0.42 0.43 0.41 0.46 0.54 0.60 0.71 0.85 0.93 1.13 1.33 1.42 1.53 1.62 1.50 1.34 1.29 1.15 1.03 0.96 0.84 0.77 0.62 0.47 0.39 0.31 0.30
0.33 0.38 0.40 0.44 0.46 0.46 0.36 0.31 0.30 0.32 0.37 0.40 0.42 0.44 0.35 0.30 0.37 0.40 0.37 0.32 0.35 0.38 0.46 0.64 0.77 0.88 1.10 1.29 1.45 1.63 1.62 1.55 1.47 1.41 1.31 1.29 1.10 0.93 0.78 0.65 0.55 0.41 0.33
0.37 0.39 0.38 0.39 0.44 0.41 0.31 0.24 0.21 0.21 0.27 0.31 0.36 0.42 0.42 0.38 0.38 0.40 0.40 0.35 0.31 0.31 0.33 0.39 0.50 0.67 0.92 1.28 1.46 1.53 1.66 1.70 1.69 1.64 1.54 1.52 1.39 1.19 1.04 0.90 0.79 0.58 0.45
0.44 0.43 0.41 0.41 0.45 0.46 0.36 0.23 0.20 0.23 0.30 0.32 0.35 0.39 0.44 0.43 0.41 0.32 0.35 0.36 0.36 0.35 0.31 0.34 0.41 0.53 0.71 0.98 1.36 1.49 1.53 1.47 1.45 1.31 1.16 1.18 1.25 1.26 1.24 1.14 0.99 0.84 0.67
0.54 0.50 0.46 0.50 0.54 0.59 0.52 0.30 0.24 0.28 0.35 0.41 0.50 0.50 0.44 0.40 0.37 0.31 0.34 0.40 0.37 0.35 0.36 0.37 0.38 0.41 0.47 0.64 0.93 1.17 1.21 1.16 1.07 1.09 0.90 0.80 0.85 0.91 1.04 1.03 0.93 0.86 0.79